M I D A S
Marine Information and Data Acquisition System
Tripno 731 of the Zeeleeuw from 2004-06-08 06:06:44 to 2004-06-08 15:33:51
Back to CruiseResearch ActivitiesStationsMapUnderway DataData graphs

EquipmentUnitsComment
TimeDGPSUTC
LatitudeDGPSDM.mWGS84
LongitudeDGPSDM.mWGS84
TemperatureSBE03/SBE38deg celciusITS90
ConductivitySBE21S/mITS90
SalinitySBE21 Practical Salinity Units
ChlorophylAChelsea fluorimeterg/lCalibrated in Aceton
Missing or incorrect values are displayed as -999
Sea surface data collected by the RV Zeeleeuw from 2004-06-08 06:06:44 to 2004-06-08 15:33:51
                                                                                    Next 1000 lines
Time Latitude Longitude Temperature Conductivity Salinity ChlorophylA
2004-06-08 06:06:52 51°13.601 2°56.098 21.764542 0.028144 0.128563 19.747777
2004-06-08 06:06:56 51°13.601 2°56.098 21.763911 0.028144 0.128566 19.747777
2004-06-08 06:07:02 51°13.6 2°56.099 21.764898 0.028144 0.128567 19.747777
2004-06-08 06:07:06 51°13.6 2°56.099 21.764898 0.028144 0.128567 19.747777
2004-06-08 06:07:11 51°13.6 2°56.099 21.765253 0.028144 0.128569 19.747777
2004-06-08 06:07:16 51°13.6 2°56.099 21.766279 0.028144 0.12857 19.747777
2004-06-08 06:07:22 51°13.6 2°56.099 21.779697 0.028144 0.128572 19.747777
2004-06-08 06:07:25 51°13.6 2°56.099 21.771331 0.028144 0.128572 19.714067
2004-06-08 06:07:31 51°13.6 2°56.099 21.777014 0.028144 0.128574 19.714067
2004-06-08 06:07:37 51°13.599 2°56.099 21.777014 0.028144 0.128574 19.714067
2004-06-08 06:07:41 51°13.599 2°56.098 21.776224 0.028144 0.128576 19.714067
2004-06-08 06:07:46 51°13.599 2°56.098 21.778 0.028144 0.128576 19.714067
2004-06-08 06:07:52 51°13.598 2°56.098 21.774962 0.028144 0.128577 19.714067
2004-06-08 06:07:56 51°13.598 2°56.098 21.7662 0.028144 0.128577 19.714067
2004-06-08 06:08:01 51°13.598 2°56.098 21.7662 0.028144 0.128577 19.714067
2004-06-08 06:08:05 51°13.598 2°56.097 21.765371 0.028144 0.12858 19.714067
2004-06-08 06:08:11 51°13.598 2°56.096 21.72289 0.028144 0.128582 19.714067
2004-06-08 06:08:16 51°13.598 2°56.093 21.737461 0.028144 0.128583 19.714067
2004-06-08 06:08:21 51°13.599 2°56.089 21.750529 0.028144 0.128582 19.680358
2004-06-08 06:08:26 51°13.6 2°56.085 21.763832 0.028144 0.128585 19.680358
2004-06-08 06:08:32 51°13.602 2°56.079 21.765924 0.028144 0.128588 19.680358
2004-06-08 06:08:37 51°13.603 2°56.073 21.765924 0.028144 0.128588 19.680358
2004-06-08 06:08:42 51°13.605 2°56.066 21.737461 0.028144 0.128589 19.680358
2004-06-08 06:08:45 51°13.605 2°56.062 21.764463 0.028144 0.128591 19.680358
2004-06-08 06:08:52 51°13.608 2°56.051 21.785576 0.028144 0.128592 19.646648
2004-06-08 06:08:57 51°13.61 2°56.043 21.765884 0.028144 0.128594 19.646648
2004-06-08 06:09:02 51°13.613 2°56.034 21.765884 0.028144 0.128594 19.646648
2004-06-08 06:09:07 51°13.615 2°56.024 21.791968 0.028144 0.128595 19.646648
2004-06-08 06:09:12 51°13.617 2°56.015 21.772041 0.028144 0.128597 19.646648
2004-06-08 06:09:17 51°13.62 2°56.004 21.800884 0.028144 0.128598 19.680358
2004-06-08 06:09:22 51°13.623 2°55.994 21.785221 0.028144 0.1286 19.612939
2004-06-08 06:09:27 51°13.625 2°55.983 21.787825 0.028144 0.128601 19.646648
2004-06-08 06:09:32 51°13.629 2°55.973 21.787825 0.028144 0.128601 19.646648
2004-06-08 06:09:36 51°13.631 2°55.964 21.79181 0.028144 0.128603 19.612939
2004-06-08 06:09:42 51°13.635 2°55.952 21.820054 0.028144 0.128604 19.646648
2004-06-08 06:09:47 51°13.639 2°55.941 21.807827 0.028144 0.128604 19.612939
2004-06-08 06:09:52 51°13.642 2°55.93 21.802383 0.028144 0.128607 19.646648
2004-06-08 06:09:57 51°13.646 2°55.919 21.79757 0.02804 0.128145 19.57923
2004-06-08 06:10:02 51°13.649 2°55.908 21.79757 0.02804 0.128145 19.57923
2004-06-08 06:10:07 51°13.653 2°55.897 21.795085 0.028144 0.128608 19.612939
2004-06-08 06:10:12 51°13.656 2°55.886 21.794927 0.028144 0.12861 19.57923
2004-06-08 06:10:17 51°13.66 2°55.875 21.79402 0.028144 0.128611 19.57923
2004-06-08 06:10:22 51°13.663 2°55.864 21.791258 0.028144 0.128613 19.57923
2004-06-08 06:10:25 51°13.665 2°55.857 21.790942 0.028144 0.128613 19.57923
2004-06-08 06:10:32 51°13.669 2°55.841 21.790706 0.028144 0.128614 19.57923
2004-06-08 06:10:37 51°13.671 2°55.83 21.790706 0.028144 0.128614 19.57923
2004-06-08 06:10:42 51°13.674 2°55.818 21.78964 0.028144 0.128614 19.54552
2004-06-08 06:10:46 51°13.675 2°55.808 21.788812 0.028144 0.128617 19.57923
2004-06-08 06:10:52 51°13.677 2°55.794 21.795006 0.028144 0.12862 19.54552
2004-06-08 06:10:57 51°13.679 2°55.783 21.815676 0.028144 0.12862 19.54552
2004-06-08 06:11:02 51°13.681 2°55.772 21.815676 0.028144 0.12862 19.54552
2004-06-08 06:11:07 51°13.682 2°55.763 21.819186 0.028144 0.128623 19.54552
2004-06-08 06:11:12 51°13.683 2°55.756 21.846591 0.028144 0.128623 19.511811
2004-06-08 06:11:17 51°13.684 2°55.751 21.779381 0.028144 0.128622 19.57923
2004-06-08 06:11:22 51°13.684 2°55.749 21.896602 0.028144 0.128625 19.511811
2004-06-08 06:11:26 51°13.685 2°55.749 21.912989 0.02804 0.128161 19.511811
2004-06-08 06:11:32 51°13.687 2°55.751 21.944649 0.02804 0.128164 19.54552
2004-06-08 06:11:36 51°13.688 2°55.753 21.944649 0.02804 0.128164 19.54552
2004-06-08 06:11:41 51°13.691 2°55.757 21.989163 0.02804 0.128164 19.511811
2004-06-08 06:11:45 51°13.694 2°55.76 21.921969 0.02804 0.128165 19.511811
2004-06-08 06:11:52 51°13.698 2°55.764 21.830544 0.028144 0.128632 19.54552
2004-06-08 06:11:56 51°13.701 2°55.766 21.731894 0.02804 0.128165 19.511811
2004-06-08 06:12:02 51°13.703 2°55.767 21.731894 0.02804 0.128165 19.511811
2004-06-08 06:12:06 51°13.703 2°55.767 21.783051 0.02804 0.128168 19.410683
2004-06-08 06:12:12 51°13.703 2°55.767 21.799227 0.02804 0.128171 19.478101
2004-06-08 06:12:16 51°13.703 2°55.767 21.725141 0.028144 0.128636 19.478101
2004-06-08 06:12:22 51°13.701 2°55.766 21.824865 0.028144 0.128636 19.511811
2004-06-08 06:12:26 51°13.699 2°55.764 21.835394 0.028144 0.128641 19.511811
2004-06-08 06:12:32 51°13.696 2°55.763 21.835394 0.028144 0.128641 19.511811
2004-06-08 06:12:36 51°13.694 2°55.761 21.823209 0.02804 0.128178 19.478101
2004-06-08 06:12:41 51°13.693 2°55.76 21.861334 0.02804 0.128181 19.444392
2004-06-08 06:12:47 51°13.693 2°55.76 21.88167 0.02804 0.128184 19.444392
2004-06-08 06:12:52 51°13.695 2°55.76 21.960829 0.02804 0.128184 19.410683
2004-06-08 06:12:57 51°13.698 2°55.76 21.940555 0.02804 0.128184 19.57923
2004-06-08 06:13:02 51°13.702 2°55.759 21.940555 0.02804 0.128184 19.57923
2004-06-08 06:13:06 51°13.706 2°55.757 21.977122 0.02804 0.128184 19.410683
2004-06-08 06:13:12 51°13.711 2°55.754 21.910468 0.02804 0.128187 19.444392
2004-06-08 06:13:17 51°13.716 2°55.75 21.829085 0.02804 0.128187 19.410683
2004-06-08 06:13:21 51°13.719 2°55.747 21.814927 0.02804 0.128187 19.444392
2004-06-08 06:13:26 51°13.724 2°55.742 21.833541 0.028144 0.128651 19.444392
2004-06-08 06:13:32 51°13.729 2°55.735 21.833541 0.028144 0.128651 19.444392
2004-06-08 06:13:36 51°13.733 2°55.731 21.83149 0.02804 0.128189 19.376973
2004-06-08 06:13:41 51°13.738 2°55.724 21.824037 0.02804 0.12819 19.410683
2004-06-08 06:13:45 51°13.743 2°55.719 21.815597 0.028144 0.128653 19.410683
2004-06-08 06:13:52 51°13.752 2°55.709 21.810785 0.02804 0.12819 19.444392
2004-06-08 06:13:56 51°13.758 2°55.703 21.768016 0.02804 0.12819 19.410683
2004-06-08 06:14:02 51°13.766 2°55.694 21.782301 0.02804 0.12819 19.410683
2004-06-08 06:14:05 51°13.771 2°55.69 21.782301 0.02804 0.12819 19.410683
2004-06-08 06:14:11 51°13.781 2°55.681 21.766832 0.02804 0.12819 19.343264
2004-06-08 06:14:17 51°13.791 2°55.673 21.766437 0.02804 0.128192 19.343264
2004-06-08 06:14:21 51°13.799 2°55.667 21.776619 0.02804 0.128192 19.410683
2004-06-08 06:14:26 51°13.808 2°55.661 21.778671 0.02804 0.128192 19.376973
2004-06-08 06:14:32 51°13.819 2°55.652 21.785734 0.02804 0.128193 19.343264
2004-06-08 06:14:36 51°13.827 2°55.647 21.785734 0.02804 0.128193 19.343264
2004-06-08 06:14:40 51°13.834 2°55.641 21.784748 0.028144 0.128659 19.343264
2004-06-08 06:14:46 51°13.846 2°55.633 21.776382 0.02804 0.128196 19.343264
2004-06-08 06:14:52 51°13.858 2°55.625 21.777566 0.02804 0.128196 19.343264
2004-06-08 06:14:56 51°13.867 2°55.62 21.771568 0.02804 0.128198 19.343264
2004-06-08 06:15:01 51°13.877 2°55.614 21.771568 0.02804 0.128198 19.343264
2004-06-08 06:15:05 51°13.885 2°55.61 21.771173 0.02804 0.128198 19.309554
2004-06-08 06:15:12 51°13.9 2°55.602 21.768292 0.02804 0.128196 19.309554
2004-06-08 06:15:16 51°13.908 2°55.597 21.791376 0.02804 0.128196 19.343264
2004-06-08 06:15:21 51°13.918 2°55.591 21.805894 0.02804 0.128201 19.275845
2004-06-08 06:15:26 51°13.929 2°55.585 21.805934 0.02804 0.128203 19.309554
2004-06-08 06:15:32 51°13.942 2°55.578 21.805934 0.02804 0.128203 19.309554
2004-06-08 06:15:36 51°13.95 2°55.573 21.803803 0.02804 0.128203 19.275845
2004-06-08 06:15:42 51°13.963 2°55.566 21.804868 0.02804 0.128203 19.275845
2004-06-08 06:15:46 51°13.971 2°55.56 21.796624 0.02804 0.128203 19.242136
2004-06-08 06:15:51 51°13.982 2°55.554 21.803448 0.02804 0.128205 19.309554
2004-06-08 06:15:56 51°13.992 2°55.548 21.812521 0.02804 0.128205 19.275845
2004-06-08 06:16:01 51°14.003 2°55.541 21.812521 0.02804 0.128205 19.275845
2004-06-08 06:16:05 51°14.011 2°55.536 21.816307 0.02804 0.128208 19.242136
2004-06-08 06:16:12 51°14.026 2°55.526 21.814296 0.02804 0.128208 19.242136
2004-06-08 06:16:16 51°14.035 2°55.52 21.81114 0.02804 0.128209 19.242136
2004-06-08 06:16:22 51°14.048 2°55.511 21.825417 0.02804 0.128209 19.242136
2004-06-08 06:16:25 51°14.055 2°55.506 21.809326 0.02804 0.128206 19.242136
2004-06-08 06:16:31 51°14.068 2°55.497 21.809326 0.02804 0.128206 19.242136
2004-06-08 06:16:37 51°14.082 2°55.487 21.808458 0.02804 0.128209 19.275845
2004-06-08 06:16:41 51°14.091 2°55.479 21.815045 0.02804 0.128209 19.208426
2004-06-08 06:16:46 51°14.103 2°55.47 21.82526 0.02804 0.128211 19.174717
2004-06-08 06:16:52 51°14.116 2°55.458 21.843595 0.02804 0.128211 19.174717
2004-06-08 06:16:56 51°14.126 2°55.45 21.81682 0.02804 0.128211 19.174717
2004-06-08 06:17:02 51°14.14 2°55.437 21.81682 0.02804 0.128211 19.174717
2004-06-08 06:17:06 51°14.149 2°55.428 21.803685 0.02804 0.128211 19.174717
2004-06-08 06:17:12 51°14.163 2°55.414 21.804947 0.02804 0.128211 19.174717
2004-06-08 06:17:17 51°14.174 2°55.402 21.814848 0.02804 0.128212 19.174717
2004-06-08 06:17:21 51°14.183 2°55.392 21.817885 0.02804 0.128214 19.174717
2004-06-08 06:17:26 51°14.194 2°55.379 21.819265 0.02804 0.128214 19.141007
2004-06-08 06:17:38 51°14.219 2°55.345 21.818437 0.02804 0.128217 19.107298
2004-06-08 06:17:44 51°14.232 2°55.326 21.818437 0.02804 0.128217 19.107298
2004-06-08 06:17:48 51°14.241 2°55.314 21.819147 0.02804 0.128217 19.141007
2004-06-08 06:17:53 51°14.251 2°55.297 21.80976 0.02804 0.128217 19.107298
2004-06-08 06:17:58 51°14.262 2°55.28 21.813665 0.02804 0.128215 19.141007
2004-06-08 06:18:03 51°14.273 2°55.262 21.803448 0.02804 0.128215 19.141007
2004-06-08 06:18:09 51°14.285 2°55.239 21.806052 0.02804 0.128217 19.141007
2004-06-08 06:18:13 51°14.294 2°55.224 21.806052 0.02804 0.128217 19.141007
2004-06-08 06:18:18 51°14.304 2°55.204 21.787747 0.02804 0.128217 19.073589
2004-06-08 06:18:24 51°14.316 2°55.18 21.776185 0.02804 0.128215 19.073589
2004-06-08 06:18:29 51°14.326 2°55.16 21.801634 0.02804 0.128217 19.073589
2004-06-08 06:18:33 51°14.334 2°55.143 21.783446 0.02804 0.128217 19.073589
2004-06-08 06:18:38 51°14.344 2°55.122 21.755938 0.02804 0.128217 19.073589
2004-06-08 06:18:43 51°14.353 2°55.1 21.755938 0.02804 0.128217 19.073589
2004-06-08 06:18:48 51°14.363 2°55.078 21.760082 0.02804 0.128215 19.141007
2004-06-08 06:18:54 51°14.374 2°55.05 21.800016 0.02804 0.128218 19.073589
2004-06-08 06:18:58 51°14.382 2°55.031 21.737856 0.02804 0.128215 19.073589
2004-06-08 06:19:04 51°14.394 2°55.002 21.741528 0.02804 0.128214 19.039879
2004-06-08 06:19:09 51°14.403 2°54.978 21.719296 0.02804 0.128214 19.039879
2004-06-08 06:19:13 51°14.412 2°54.958 21.719296 0.02804 0.128214 19.039879
2004-06-08 06:19:18 51°14.422 2°54.934 21.747213 0.02804 0.128215 19.039879
2004-06-08 06:19:24 51°14.435 2°54.905 21.737106 0.02804 0.128217 19.00617
2004-06-08 06:19:29 51°14.446 2°54.881 21.735329 0.02804 0.128217 19.039879
2004-06-08 06:19:33 51°14.455 2°54.862 21.725141 0.02804 0.128217 19.073589
2004-06-08 06:19:38 51°14.467 2°54.838 21.732802 0.02804 0.128217 19.039879
2004-06-08 06:19:44 51°14.482 2°54.811 21.732802 0.02804 0.128217 19.039879
2004-06-08 06:19:49 51°14.494 2°54.788 21.759411 0.02804 0.128215 19.00617
2004-06-08 06:19:52 51°14.502 2°54.775 21.74291 0.02804 0.128218 19.00617
2004-06-08 06:19:58 51°14.517 2°54.75 21.729367 0.02804 0.128218 19.00617
2004-06-08 06:20:02 51°14.528 2°54.733 21.816071 0.02804 0.128221 19.00617
2004-06-08 06:20:09 51°14.547 2°54.704 21.812915 0.02804 0.128223 19.00617
2004-06-08 06:20:14 51°14.56 2°54.684 21.812915 0.02804 0.128223 19.00617
2004-06-08 06:20:18 51°14.571 2°54.667 21.789483 0.02804 0.128223 19.00617
2004-06-08 06:20:29 51°14.599 2°54.621 21.803567 0.02804 0.128224 18.97246
2004-06-08 06:20:34 51°14.612 2°54.6 21.791021 0.02804 0.128224 18.97246
2004-06-08 06:20:41 51°14.63 2°54.571 21.799977 0.02804 0.128226 18.97246
2004-06-08 06:20:45 51°14.641 2°54.554 21.787194 0.02804 0.128227 18.97246
2004-06-08 06:20:57 51°14.671 2°54.503 21.793901 0.02804 0.128228 18.97246
2004-06-08 06:21:03 51°14.686 2°54.477 21.782578 0.02804 0.128228 18.97246
2004-06-08 06:21:09 51°14.702 2°54.452 21.770581 0.02804 0.128227 18.938751
2004-06-08 06:21:13 51°14.712 2°54.435 21.770581 0.02804 0.128227 18.938751
2004-06-08 06:21:18 51°14.725 2°54.414 21.783288 0.02804 0.128228 18.938751
2004-06-08 06:21:24 51°14.74 2°54.389 21.803409 0.02804 0.12823 18.938751
2004-06-08 06:21:29 51°14.753 2°54.368 21.819975 0.02804 0.128228 18.97246
2004-06-08 06:21:33 51°14.763 2°54.351 21.83977 0.02804 0.12823 18.938751
2004-06-08 06:21:38 51°14.776 2°54.329 21.813388 0.02804 0.12823 18.938751
2004-06-08 06:21:43 51°14.787 2°54.307 21.813388 0.02804 0.12823 18.938751
2004-06-08 06:21:49 51°14.801 2°54.28 21.810627 0.02804 0.12823 18.938751
2004-06-08 06:21:54 51°14.813 2°54.257 21.807748 0.02804 0.128233 18.905042
2004-06-08 06:21:57 51°14.819 2°54.243 21.796545 0.02804 0.128231 18.905042
2004-06-08 06:22:04 51°14.835 2°54.21 21.79757 0.02804 0.128231 18.905042
2004-06-08 06:22:07 51°14.842 2°54.197 21.783367 0.02804 0.128228 18.905042
2004-06-08 06:22:13 51°14.855 2°54.169 21.783367 0.02804 0.128228 18.905042
2004-06-08 06:22:18 51°14.866 2°54.146 21.779381 0.02804 0.12823 18.871332
2004-06-08 06:22:24 51°14.88 2°54.118 21.8126 0.02804 0.128233 18.905042
2004-06-08 06:22:28 51°14.889 2°54.099 21.900502 0.02804 0.128237 18.905042
2004-06-08 06:22:33 51°14.899 2°54.075 21.847892 0.02804 0.128236 18.905042
2004-06-08 06:22:37 51°14.907 2°54.056 21.854554 0.02804 0.128236 18.905042
2004-06-08 06:22:44 51°14.92 2°54.021 21.854554 0.02804 0.128236 18.905042
2004-06-08 06:22:48 51°14.927 2°54.001 21.825181 0.02804 0.128237 18.905042
2004-06-08 06:22:52 51°14.934 2°53.981 21.818516 0.02804 0.128236 18.871332
2004-06-08 06:22:59 51°14.947 2°53.946 21.840835 0.02804 0.128236 18.871332
2004-06-08 06:23:02 51°14.952 2°53.93 21.816425 0.02804 0.128234 18.905042
2004-06-08 06:23:09 51°14.964 2°53.894 21.820724 0.02804 0.128236 18.905042
2004-06-08 06:23:13 51°14.971 2°53.873 21.820724 0.02804 0.128236 18.905042
2004-06-08 06:23:18 51°14.979 2°53.847 21.816662 0.02804 0.128234 18.905042
2004-06-08 06:23:24 51°14.989 2°53.817 21.812757 0.02804 0.128237 18.871332
2004-06-08 06:23:29 51°14.998 2°53.791 21.790035 0.02804 0.128234 18.871332
2004-06-08 06:23:33 51°15.005 2°53.77 21.79761 0.02804 0.128236 18.837623
2004-06-08 06:23:38 51°15.014 2°53.745 21.818358 0.02804 0.128237 18.837623
2004-06-08 06:23:44 51°15.024 2°53.714 21.803093 0.02804 0.128239 18.837623
2004-06-08 06:23:48 51°15.032 2°53.694 21.803093 0.02804 0.128239 18.837623
2004-06-08 06:23:53 51°15.041 2°53.669 21.819423 0.02804 0.128239 18.871332
2004-06-08 06:23:57 51°15.048 2°53.649 21.801397 0.02804 0.128239 18.837623
2004-06-08 06:24:04 51°15.061 2°53.613 21.830189 0.02804 0.128239 18.803913
2004-06-08 06:24:08 51°15.068 2°53.593 21.835394 0.02804 0.128242 18.837623
2004-06-08 06:24:14 51°15.079 2°53.563 21.820054 0.02804 0.128242 18.803913
2004-06-08 06:24:19 51°15.088 2°53.538 21.820054 0.02804 0.128242 18.803913
2004-06-08 06:24:23 51°15.095 2°53.518 21.83078 0.02804 0.128242 18.803913
2004-06-08 06:24:28 51°15.104 2°53.493 21.818358 0.02804 0.128242 18.803913
2004-06-08 06:24:33 51°15.113 2°53.467 21.81966 0.02804 0.128242 18.770204
2004-06-08 06:24:37 51°15.12 2°53.447 21.823406 0.02804 0.128243 18.803913
2004-06-08 06:24:44 51°15.132 2°53.412 21.823406 0.02804 0.128243 18.803913
2004-06-08 06:24:49 51°15.141 2°53.386 21.817451 0.02804 0.128243 18.803913
2004-06-08 06:24:54 51°15.149 2°53.361 21.814848 0.02804 0.128243 18.770204
2004-06-08 06:24:58 51°15.157 2°53.341 21.805618 0.02804 0.128243 18.770204
2004-06-08 06:25:04 51°15.168 2°53.311 21.837444 0.02804 0.128245 18.770204
2004-06-08 06:25:08 51°15.175 2°53.291 21.841821 0.02804 0.128246 18.736494
2004-06-08 06:25:13 51°15.184 2°53.266 21.841821 0.02804 0.128246 18.736494
2004-06-08 06:25:18 51°15.193 2°53.24 21.838233 0.02804 0.128246 18.736494
2004-06-08 06:25:24 51°15.204 2°53.21 21.843595 0.02804 0.128248 18.770204
2004-06-08 06:25:29 51°15.213 2°53.185 21.840914 0.02804 0.128246 18.736494
2004-06-08 06:25:32 51°15.219 2°53.17 21.83078 0.02804 0.128249 18.736494
2004-06-08 06:25:38 51°15.23 2°53.14 21.824353 0.02804 0.128248 18.702785
2004-06-08 06:25:44 51°15.242 2°53.11 21.824353 0.02804 0.128248 18.702785
2004-06-08 06:25:49 51°15.251 2°53.085 21.853096 0.02804 0.128249 18.669076
2004-06-08 06:25:53 51°15.258 2°53.065 21.836695 0.02804 0.128249 18.736494
2004-06-08 06:25:58 51°15.268 2°53.04 21.857629 0.02804 0.128251 18.702785
2004-06-08 06:26:04 51°15.279 2°53.009 21.854436 0.02804 0.128251 18.702785
2004-06-08 06:26:08 51°15.286 2°52.989 21.847892 0.02804 0.128249 18.702785
2004-06-08 06:26:12 51°15.293 2°52.968 21.847892 0.02804 0.128249 18.702785
2004-06-08 06:26:18 51°15.305 2°52.938 21.841308 0.02804 0.128251 18.702785
2004-06-08 06:26:22 51°15.312 2°52.918 21.819423 0.02804 0.128252 18.669076
2004-06-08 06:26:29 51°15.326 2°52.883 21.81043 0.02804 0.128251 18.669076
2004-06-08 06:26:34 51°15.336 2°52.858 21.845132 0.02804 0.128252 18.702785
2004-06-08 06:26:38 51°15.344 2°52.838 21.870911 0.02804 0.128255 18.669076
2004-06-08 06:26:42 51°15.351 2°52.818 21.870911 0.02804 0.128255 18.669076
2004-06-08 06:26:49 51°15.365 2°52.782 21.841623 0.02804 0.128255 18.669076
2004-06-08 06:26:53 51°15.372 2°52.762 21.861413 0.02804 0.128255 18.702785
2004-06-08 06:26:58 51°15.381 2°52.737 21.829321 0.02804 0.128256 18.702785
2004-06-08 06:27:04 51°15.393 2°52.707 21.82104 0.02804 0.128258 18.669076
2004-06-08 06:27:09 51°15.402 2°52.682 21.864408 0.02804 0.128258 18.669076
2004-06-08 06:27:14 51°15.41 2°52.656 21.983615 0.02804 0.128262 18.635366
2004-06-08 06:27:18 51°15.414 2°52.634 21.983615 0.02804 0.128262 18.635366
2004-06-08 06:27:24 51°15.42 2°52.601 21.939767 0.02804 0.128264 18.534238
2004-06-08 06:27:28 51°15.423 2°52.579 21.932247 0.02804 0.128264 18.635366
2004-06-08 06:27:32 51°15.426 2°52.557 20.01836 0.02804 0.128265 47.895127
2004-06-08 06:27:37 51°15.43 2°52.529 18.72199 0.228893 1.107043 46.951264
2004-06-08 06:27:44 51°15.433 2°52.489 18.533487 0.15021 0.711762 62.760973
2004-06-08 06:27:48 51°15.435 2°52.467 18.533487 0.15021 0.711762 62.760973
2004-06-08 06:27:53 51°15.438 2°52.439 17.873761 3.742046 23.906495 42.400494
2004-06-08 06:27:57 51°15.439 2°52.416 17.652352 4.143594 28.069946 22.107435
2004-06-08 06:28:04 51°15.442 2°52.376 17.53809 4.334064 30.721811 16.781349
2004-06-08 06:28:09 51°15.444 2°52.348 17.61095 4.221346 30.607877 14.826204
2004-06-08 06:28:13 51°15.446 2°52.325 17.481895 4.262904 31.457077 12.904768
2004-06-08 06:28:18 51°15.448 2°52.296 17.481895 4.262904 31.457077 12.904768
2004-06-08 06:28:24 51°15.45 2°52.262 17.44631 4.254052 31.742507 11.960905
2004-06-08 06:28:28 51°15.452 2°52.239 17.410958 4.243089 31.865216 11.320426
2004-06-08 06:28:33 51°15.454 2°52.211 17.371133 4.221579 31.824074 11.08446
2004-06-08 06:28:38 51°15.456 2°52.182 17.365586 4.177186 31.52793 10.882204
2004-06-08 06:28:44 51°15.459 2°52.148 17.365586 4.177186 31.52793 10.882204
2004-06-08 06:28:49 51°15.461 2°52.12 17.343772 4.167487 31.516246 10.679947
2004-06-08 06:28:54 51°15.462 2°52.091 17.32624 4.063525 30.68573 10.578819
2004-06-08 06:28:58 51°15.463 2°52.069 17.280098 4.213253 32.012789 10.679947
2004-06-08 06:29:02 51°15.464 2°52.046 17.274838 4.211144 32.021826 10.376563
2004-06-08 06:29:09 51°15.464 2°52.006 17.273281 4.207665 32.02785 10.275435
2004-06-08 06:29:13 51°15.464 2°51.984 17.273281 4.207665 32.02785 10.275435
2004-06-08 06:29:18 51°15.464 2°51.955 17.285484 4.205767 32.024356 10.208016
2004-06-08 06:29:23 51°15.464 2°51.927 17.282118 4.205662 32.049331 10.073178
2004-06-08 06:29:29 51°15.463 2°51.892 17.273786 4.205241 32.071659 10.005759
2004-06-08 06:29:33 51°15.463 2°51.87 17.284305 4.207034 32.097881 9.904631
2004-06-08 06:29:38 51°15.463 2°51.841 17.304624 4.205874 32.098969 9.769794
2004-06-08 06:29:44 51°15.462 2°51.807 17.304624 4.205874 32.098969 9.769794
2004-06-08 06:29:49 51°15.46 2°51.779 17.25249 4.205136 32.096144 9.769794
2004-06-08 06:29:53 51°15.459 2°51.756 17.262255 4.20619 32.106284 9.769794
2004-06-08 06:29:58 51°15.456 2°51.728 17.245418 4.205663 32.108145 9.769794
2004-06-08 06:30:02 51°15.455 2°51.705 17.261834 4.20619 32.104551 9.736084
2004-06-08 06:30:09 51°15.451 2°51.666 17.240493 4.20619 32.117262 9.736084
2004-06-08 06:30:14 51°15.448 2°51.638 17.240493 4.20619 32.117262 9.736084
2004-06-08 06:30:18 51°15.446 2°51.616 17.215944 4.10739 31.282943 9.803503
2004-06-08 06:30:24 51°15.442 2°51.582 17.202634 4.211674 32.180803 9.803503
2004-06-08 06:30:29 51°15.44 2°51.554 17.203392 4.21178 32.190979 9.870922
2004-06-08 06:30:33 51°15.438 2°51.532 17.198126 4.209144 32.170804 9.870922
2004-06-08 06:30:38 51°15.435 2°51.504 17.198211 4.21062 32.194422 9.837212
2004-06-08 06:30:44 51°15.433 2°51.47 17.163363 4.211148 32.211696 9.97205
2004-06-08 06:30:49 51°15.43 2°51.442 17.163363 4.211148 32.211696 9.97205
2004-06-08 06:30:53 51°15.429 2°51.419 17.164712 4.210093 32.217798 10.106888
2004-06-08 06:30:58 51°15.426 2°51.391 17.148441 4.211464 32.230091 10.106888
2004-06-08 06:31:02 51°15.424 2°51.368 17.156957 4.210199 32.229749 10.174306
2004-06-08 06:31:09 51°15.421 2°51.329 17.130016 4.212203 32.259101 10.208016
2004-06-08 06:31:14 51°15.419 2°51.3 17.136805 4.209461 32.244395 10.309144
2004-06-08 06:31:16 51°15.418 2°51.289 17.136805 4.209461 32.244395 10.309144
2004-06-08 06:31:24 51°15.414 2°51.243 17.11378 4.206614 32.228782 10.410272
2004-06-08 06:31:29 51°15.412 2°51.215 17.122847 4.207353 32.247916 10.443982
2004-06-08 06:31:33 51°15.41 2°51.192 17.101167 4.20672 32.244834 10.578819
2004-06-08 06:31:38 51°15.407 2°51.164 17.099142 4.207247 32.252845 10.679947
2004-06-08 06:31:42 51°15.405 2°51.141 17.105259 4.207142 32.260693 10.747366
2004-06-08 06:31:49 51°15.402 2°51.101 17.105259 4.207142 32.260693 10.747366
2004-06-08 06:31:54 51°15.4 2°51.073 17.100999 4.204084 32.235682 10.882204
2004-06-08 06:31:58 51°15.398 2°51.05 17.092561 4.204084 32.249684 10.983332
2004-06-08 06:32:04 51°15.395 2°51.016 17.092434 4.204401 32.259983 11.017042
2004-06-08 06:32:09 51°15.392 2°50.988 17.072813 4.203663 32.258917 11.017042
2004-06-08 06:32:14 51°15.388 2°50.96 17.072813 4.203663 32.258917 11.017042
2004-06-08 06:32:18 51°15.385 2°50.937 17.091379 4.203979 32.266885 11.050751
2004-06-08 06:32:23 51°15.382 2°50.91 17.053059 4.204717 32.271457 11.050751
2004-06-08 06:32:29 51°15.377 2°50.877 17.059011 4.199761 32.234834 11.050751
2004-06-08 06:32:34 51°15.373 2°50.849 17.053861 4.202819 32.270389 11.11817
2004-06-08 06:32:44 51°15.365 2°50.793 17.043855 4.203452 32.287514 11.151879
2004-06-08 06:32:51 51°15.36 2°50.754 17.047444 4.203241 32.290974 11.151879
2004-06-08 06:32:56 51°15.356 2°50.726 17.025529 4.201976 32.28539 11.185589
2004-06-08 06:33:02 51°15.351 2°50.692 17.025529 4.201976 32.28539 11.185589
2004-06-08 06:33:05 51°15.349 2°50.676 17.027683 4.202398 32.294279 11.219298
2004-06-08 06:33:11 51°15.344 2°50.642 17.020841 4.202714 32.299336 11.354136
2004-06-08 06:33:17 51°15.339 2°50.608 17.01704 4.201027 32.285447 11.320426
2004-06-08 06:33:21 51°15.336 2°50.586 17.016533 4.201238 32.297802 11.387845
2004-06-08 06:33:26 51°15.332 2°50.558 17.017715 4.198918 32.281408 11.354136
2004-06-08 06:33:32 51°15.328 2°50.524 17.012647 4.198391 32.28157 11.455264
2004-06-08 06:33:36 51°15.325 2°50.502 17.012647 4.198391 32.28157 11.455264
2004-06-08 06:33:40 51°15.322 2°50.48 17.010915 4.198708 32.28663 11.455264
2004-06-08 06:33:49 51°15.315 2°50.429 17.013027 4.198286 32.291803 11.556392
2004-06-08 06:33:56 51°15.31 2°50.39 17.013027 4.198286 32.291803 11.556392
2004-06-08 06:34:01 51°15.306 2°50.362 17.013449 4.197442 32.287491 11.488973
2004-06-08 06:34:06 51°15.302 2°50.334 17.009943 4.197864 32.292873 11.556392
2004-06-08 06:34:10 51°15.299 2°50.311 17.006141 4.197021 32.283869 11.590101
2004-06-08 06:34:16 51°15.294 2°50.278 17.014928 4.196177 32.280143 11.556392
2004-06-08 06:34:21 51°15.291 2°50.249 17.01176 4.198497 32.300066 11.65752
2004-06-08 06:34:26 51°15.287 2°50.221 17.007409 4.194279 32.266775 11.590101
2004-06-08 06:34:30 51°15.284 2°50.199 17.007409 4.194279 32.266775 11.590101
2004-06-08 06:34:36 51°15.28 2°50.165 17.009648 4.198286 32.302949 11.724939
2004-06-08 06:34:41 51°15.278 2°50.137 17.007704 4.194806 32.272475 11.65752
2004-06-08 06:34:45 51°15.275 2°50.114 17.01176 4.197759 32.297834 11.724939
2004-06-08 06:34:50 51°15.272 2°50.086 17.000987 4.197654 32.299275 11.724939
2004-06-08 06:34:53 51°15.271 2°50.069 17.000987 4.197654 32.299275 11.724939
2004-06-08 06:35:00 51°15.266 2°50.03 17.000185 4.20282 32.342488 11.758648
2004-06-08 06:35:05 51°15.263 2°50.001 17.000565 4.202821 32.344251 11.927195
2004-06-08 06:35:10 51°15.26 2°49.973 17.00517 4.201133 32.326819 11.927195
2004-06-08 06:35:15 51°15.257 2°49.945 17.010154 4.206089 32.374103 11.960905
2004-06-08 06:35:20 51°15.254 2°49.917 17.011675 4.195755 32.285318 11.994614
2004-06-08 06:35:25 51°15.251 2°49.889 17.011675 4.195755 32.285318 11.994614
2004-06-08 06:35:30 51°15.248 2°49.861 17.013154 4.206933 32.385472 12.028324
2004-06-08 06:35:36 51°15.245 2°49.827 17.026585 4.205879 32.376997 12.129452
2004-06-08 06:35:40 51°15.242 2°49.805 17.019996 4.211257 32.420866 12.163161
2004-06-08 06:35:46 51°15.238 2°49.771 17.027302 4.209991 32.408222 12.23058
2004-06-08 06:35:50 51°15.236 2°49.749 17.030301 4.209569 32.401064 12.331708
2004-06-08 06:35:53 51°15.234 2°49.732 17.032243 4.209675 32.400205 12.365418
2004-06-08 06:36:01 51°15.229 2°49.686 17.032243 4.209675 32.400205 12.365418
2004-06-08 06:36:06 51°15.226 2°49.658 17.03427 4.210096 32.403241 12.399127
2004-06-08 06:36:10 51°15.224 2°49.635 17.030892 4.2121 32.415158 12.432836
2004-06-08 06:36:16 51°15.22 2°49.602 17.04356 4.204402 32.346087 12.466546
2004-06-08 06:36:21 51°15.217 2°49.573 17.037522 4.217372 32.456929 12.533965
2004-06-08 06:36:25 51°15.214 2°49.551 17.037522 4.217372 32.456929 12.533965
2004-06-08 06:36:29 51°15.211 2°49.528 17.032454 4.216423 32.447006 12.668802
2004-06-08 06:36:36 51°15.207 2°49.489 17.031357 4.217161 32.453938 12.80364
2004-06-08 06:36:40 51°15.204 2°49.466 17.013914 4.216107 32.443698 12.972187
2004-06-08 06:36:46 51°15.2 2°49.432 17.009056 4.215791 32.438035 13.107024
2004-06-08 06:36:50 51°15.198 2°49.41 16.992664 4.210518 32.392154 13.208153
2004-06-08 06:36:56 51°15.194 2°49.376 16.986326 4.206406 32.363296 13.34299
2004-06-08 06:37:00 51°15.192 2°49.353 16.986326 4.206406 32.363296 13.34299
2004-06-08 06:37:05 51°15.188 2°49.325 16.974578 4.218216 32.470076 13.444118
2004-06-08 06:37:10 51°15.185 2°49.296 16.972591 4.212522 32.424083 13.511537
2004-06-08 06:37:16 51°15.181 2°49.262 16.968196 4.212944 32.439496 13.511537
2004-06-08 06:37:21 51°15.178 2°49.234 16.95767 4.215791 32.469287 13.680084
2004-06-08 06:37:26 51°15.175 2°49.205 16.95767 4.215791 32.469287 13.680084
2004-06-08 06:37:30 51°15.172 2°49.182 16.948285 4.213471 32.46055 13.713794
2004-06-08 06:37:36 51°15.168 2°49.148 16.940547 4.214421 32.474029 13.949759
2004-06-08 06:37:40 51°15.166 2°49.125 16.936911 4.214315 32.477257 13.91605
2004-06-08 06:37:45 51°15.162 2°49.097 16.931329 4.213999 32.47808 13.949759
2004-06-08 06:37:49 51°15.16 2°49.074 16.928707 4.206512 32.420738 14.050888
2004-06-08 06:37:56 51°15.156 2°49.034 16.926042 4.207356 32.436263 14.084597
2004-06-08 06:37:59 51°15.154 2°49.017 16.926042 4.207356 32.436263 14.084597
2004-06-08 06:38:05 51°15.151 2°48.983 16.901508 4.206934 32.437947 14.253144
2004-06-08 06:38:10 51°15.147 2°48.954 16.897784 4.207778 32.45171 14.286853
2004-06-08 06:38:15 51°15.144 2°48.925 16.879758 4.207251 32.447761 14.421691
2004-06-08 06:38:20 51°15.141 2°48.897 16.878911 4.20588 32.440093 14.354272
2004-06-08 06:38:26 51°15.137 2°48.863 16.878911 4.20588 32.440093 14.354272
2004-06-08 06:38:29 51°15.135 2°48.846 16.874933 4.211258 32.492329 14.421691
2004-06-08 06:38:36 51°15.131 2°48.805 16.870361 4.202295 32.425169 14.522819
2004-06-08 06:38:41 51°15.128 2°48.777 16.869811 4.204826 32.457029 14.4554
2004-06-08 06:38:45 51°15.126 2°48.754 16.861641 4.203033 32.446313 14.522819
2004-06-08 06:38:50 51°15.123 2°48.725 16.866129 4.202084 32.449377 14.556529
2004-06-08 06:38:56 51°15.119 2°48.691 16.866129 4.202084 32.449377 14.556529
2004-06-08 06:39:01 51°15.116 2°48.663 16.867737 4.205248 32.476654 14.623947
2004-06-08 06:39:06 51°15.112 2°48.634 16.854529 4.20588 32.483887 14.590238
2004-06-08 06:39:10 51°15.11 2°48.612 16.85093 4.193227 32.378339 14.725076
2004-06-08 06:39:16 51°15.105 2°48.578 16.844283 4.201452 32.450435 14.725076
2004-06-08 06:39:20 51°15.103 2°48.555 16.848009 4.201452 32.452212 14.826204
2004-06-08 06:39:25 51°15.099 2°48.526 16.848009 4.201452 32.452212 14.826204
2004-06-08 06:39:30 51°15.096 2°48.498 16.837889 4.204932 32.484594 14.826204
2004-06-08 06:39:36 51°15.092 2°48.464 16.835517 4.21147 32.546935 14.961042
2004-06-08 06:39:41 51°15.089 2°48.435 16.833188 4.204615 32.492541 15.02846
2004-06-08 06:39:46 51°15.086 2°48.407 16.820397 4.200081 32.456384 15.02846
2004-06-08 06:39:50 51°15.084 2°48.384 16.819338 4.191434 32.387118 15.06217
2004-06-08 06:39:55 51°15.081 2°48.355 16.819338 4.191434 32.387118 15.06217
2004-06-08 06:40:01 51°15.077 2°48.321 16.811755 4.203456 32.494993 15.06217
2004-06-08 06:40:04 51°15.075 2°48.304 16.802434 4.210521 32.555387 15.095879
2004-06-08 06:40:10 51°15.071 2°48.27 16.802223 4.202929 32.496972 15.129589
2004-06-08 06:40:16 51°15.067 2°48.236 16.798494 4.204721 32.516607 15.197007
2004-06-08 06:40:21 51°15.064 2°48.207 16.789044 4.201874 32.497369 15.264426
2004-06-08 06:40:26 51°15.06 2°48.179 16.793282 4.204511 32.525485 15.264426
2004-06-08 06:40:30 51°15.058 2°48.156 16.793282 4.204511 32.525485 15.264426
2004-06-08 06:40:36 51°15.054 2°48.122 16.787858 4.20546 32.534277 15.331845
2004-06-08 06:40:41 51°15.051 2°48.093 16.784934 4.204089 32.527194 15.331845
2004-06-08 06:40:46 51°15.048 2°48.065 16.779212 4.198289 32.480661 15.298136
2004-06-08 06:40:50 51°15.045 2°48.042 16.775609 4.205565 32.54828 15.298136
2004-06-08 06:40:56 51°15.042 2°48.008 16.775609 4.205565 32.54828 15.298136
2004-06-08 06:41:00 51°15.04 2°47.985 16.776838 4.191435 32.427988 15.331845
2004-06-08 06:41:05 51°15.037 2°47.956 16.774762 4.204089 32.537903 15.365554
2004-06-08 06:41:10 51°15.034 2°47.928 16.774211 4.19017 32.417652 15.399264
2004-06-08 06:41:14 51°15.032 2°47.905 16.77705 4.187112 32.39776 15.399264
2004-06-08 06:41:21 51°15.028 2°47.865 16.769463 4.205249 32.557457 15.432973
2004-06-08 06:41:25 51°15.026 2°47.842 16.769463 4.205249 32.557457 15.432973
2004-06-08 06:41:29 51°15.023 2°47.819 16.765563 4.197657 32.493617 15.399264
2004-06-08 06:41:36 51°15.019 2°47.779 16.764673 4.202613 32.538241 15.432973
2004-06-08 06:41:41 51°15.017 2°47.75 16.762087 4.204406 32.552547 15.432973
2004-06-08 06:41:45 51°15.014 2°47.727 16.759755 4.204617 32.560925 15.399264
2004-06-08 06:41:48 51°15.013 2°47.71 16.758059 4.200293 32.523544 15.432973
2004-06-08 06:41:58 51°15.007 2°47.653 16.753862 4.205882 32.572463 15.500392
2004-06-08 06:42:04 51°15.004 2°47.619 16.746314 4.205038 32.569938 15.466683
2004-06-08 06:42:09 51°15.001 2°47.59 16.749961 4.198079 32.509161 15.500392
2004-06-08 06:42:13 51°14.999 2°47.567 16.742879 4.204617 32.568079 15.534101
2004-06-08 06:42:18 51°14.996 2°47.539 16.742879 4.204617 32.568079 15.534101
2004-06-08 06:42:22 51°14.994 2°47.516 16.748095 4.204617 32.572253 15.500392
2004-06-08 06:42:29 51°14.989 2°47.476 16.746696 4.20314 32.558292 15.534101
2004-06-08 06:42:34 51°14.986 2°47.448 16.744576 4.197235 32.514368 15.736358
2004-06-08 06:42:38 51°14.984 2°47.425 16.744364 4.205777 32.589449 15.60152
2004-06-08 06:42:44 51°14.98 2°47.391 16.739911 4.20641 32.594923 15.63523
2004-06-08 06:42:49 51°14.977 2°47.363 16.739911 4.20641 32.594923 15.63523
2004-06-08 06:42:53 51°14.975 2°47.34 16.734652 4.207042 32.602786 15.736358
2004-06-08 06:42:58 51°14.972 2°47.311 16.724345 4.207359 32.603732 15.837486
2004-06-08 06:43:04 51°14.969 2°47.277 16.728163 4.202508 32.563553 15.938614
2004-06-08 06:43:09 51°14.966 2°47.249 16.724515 4.192807 32.485587 16.006033
2004-06-08 06:43:13 51°14.964 2°47.226 16.724515 4.192807 32.485587 16.006033
2004-06-08 06:43:18 51°14.961 2°47.198 16.725024 4.199345 32.543339 15.972324
2004-06-08 06:43:22 51°14.959 2°47.175 16.721334 4.203457 32.580717 16.073452
2004-06-08 06:43:28 51°14.955 2°47.141 16.719594 4.197341 32.528984 16.140871
2004-06-08 06:43:34 51°14.951 2°47.108 16.718491 4.205039 32.599783 16.140871
2004-06-08 06:43:36 51°14.95 2°47.096 16.716922 4.205355 32.606107 16.140871
2004-06-08 06:43:45 51°14.945 2°47.046 16.714758 4.198396 32.544072 16.107161
2004-06-08 06:43:51 51°14.941 2°47.012 16.709031 4.196287 32.529398 16.039742
2004-06-08 06:43:57 51°14.938 2°46.978 16.708946 4.198396 32.548248 15.938614
2004-06-08 06:44:01 51°14.936 2°46.955 16.704109 4.202614 32.585956 15.938614
2004-06-08 06:44:07 51°14.933 2°46.922 16.704109 4.202614 32.585956 15.938614
2004-06-08 06:44:10 51°14.931 2°46.905 16.699866 4.201665 32.580129 15.938614
2004-06-08 06:44:17 51°14.927 2°46.865 16.700842 4.198607 32.557833 15.837486
2004-06-08 06:44:22 51°14.925 2°46.837 16.695495 4.204723 32.611988 15.837486
2004-06-08 06:44:26 51°14.923 2°46.814 16.69244 4.198396 32.559589 15.770067
2004-06-08 06:44:32 51°14.919 2°46.78 16.686031 4.200927 32.583894 15.770067
2004-06-08 06:44:36 51°14.917 2°46.757 16.686031 4.200927 32.583894 15.770067
2004-06-08 06:44:40 51°14.915 2°46.735 16.687729 4.185953 32.45604 15.803777
2004-06-08 06:44:49 51°14.91 2°46.684 16.694816 4.197552 32.558853 15.871195
2004-06-08 06:44:56 51°14.906 2°46.644 16.70046 4.204407 32.624206 15.770067
2004-06-08 06:45:01 51°14.903 2°46.616 16.70046 4.204407 32.624206 15.770067
2004-06-08 06:45:06 51°14.901 2°46.587 16.697575 4.19692 32.561736 15.871195
2004-06-08 06:45:10 51°14.899 2°46.564 16.69749 4.202825 32.613494 15.837486
2004-06-08 06:45:16 51°14.895 2°46.53 16.693331 4.201032 32.595569 15.938614
2004-06-08 06:45:21 51°14.893 2°46.502 16.691549 4.200505 32.590403 15.904905
2004-06-08 06:45:26 51°14.89 2°46.473 16.693628 4.203036 32.61173 15.938614
2004-06-08 06:45:30 51°14.888 2°46.451 16.693628 4.203036 32.61173 15.938614
2004-06-08 06:45:36 51°14.884 2°46.416 16.688493 4.204934 32.625183 15.837486
2004-06-08 06:45:41 51°14.882 2°46.388 16.689002 4.205672 32.630979 15.837486
2004-06-08 06:45:45 51°14.88 2°46.365 16.688408 4.205672 32.633374 15.938614
2004-06-08 06:45:50 51°14.877 2°46.336 16.683782 4.205461 32.633941 15.837486
2004-06-08 06:45:53 51°14.876 2°46.319 16.68565 4.199978 32.584042 15.972324
2004-06-08 06:46:00 51°14.872 2°46.279 16.68565 4.199978 32.584042 15.972324
2004-06-08 06:46:05 51°14.869 2°46.25 16.682679 4.194916 32.546173 15.938614
2004-06-08 06:46:10 51°14.866 2°46.221 16.686711 4.199873 32.587912 15.972324
2004-06-08 06:46:15 51°14.863 2°46.193 16.682169 4.202614 32.611068 15.972324
2004-06-08 06:46:20 51°14.86 2°46.164 16.681278 4.199662 32.590869 16.039742
2004-06-08 06:46:25 51°14.858 2°46.135 16.681278 4.199662 32.590869 16.039742
2004-06-08 06:46:30 51°14.855 2°46.106 16.687432 4.202614 32.617652 16.208289
2004-06-08 06:46:36 51°14.852 2°46.072 16.679156 4.192491 32.528747 16.17458
2004-06-08 06:46:40 51°14.849 2°46.049 16.680769 4.203774 32.624112 16.208289
2004-06-08 06:46:46 51°14.846 2°46.014 16.681872 4.204301 32.630477 16.241999
2004-06-08 06:46:50 51°14.843 2°45.991 16.680684 4.205145 32.63659 16.140871
2004-06-08 06:46:53 51°14.841 2°45.974 16.680684 4.205145 32.63659 16.140871
2004-06-08 06:47:01 51°14.835 2°45.929 16.685225 4.205989 32.645698 16.140871
2004-06-08 06:47:05 51°14.832 2°45.906 16.68497 4.20388 32.629816 16.17458
2004-06-08 06:47:10 51°14.829 2°45.877 16.684334 4.199873 32.596885 16.140871
2004-06-08 06:47:16 51°14.824 2°45.843 16.68739 4.206832 32.657805 16.17458
2004-06-08 06:47:21 51°14.821 2°45.814 16.68722 4.194495 32.54909 16.208289
2004-06-08 06:47:25 51°14.818 2°45.791 16.68722 4.194495 32.54909 16.208289
2004-06-08 06:47:29 51°14.815 2°45.768 16.69244 4.204196 32.631959 16.241999
2004-06-08 06:47:36 51°14.81 2°45.728 16.690955 4.192491 32.529941 16.241999
2004-06-08 06:47:40 51°14.807 2°45.705 16.691549 4.204196 32.629563 16.275708
2004-06-08 06:47:44 51°14.804 2°45.682 16.690488 4.20504 32.636275 16.241999
2004-06-08 06:47:49 51°14.801 2°45.653 16.690785 4.205145 32.634194 16.343127
2004-06-08 06:48:01 51°14.791 2°45.584 16.693925 4.201982 32.607979 16.376836
2004-06-08 06:48:08 51°14.786 2°45.544 16.693925 4.201982 32.607979 16.376836
2004-06-08 06:48:13 51°14.783 2°45.515 16.700545 4.219697 32.757328 16.410546
2004-06-08 06:48:18 51°14.779 2°45.486 16.703006 4.20641 32.647556 16.410546
2004-06-08 06:48:23 51°14.775 2°45.458 16.705764 4.211894 32.691485 16.410546
2004-06-08 06:48:28 51°14.772 2°45.429 16.705255 4.205778 32.635485 16.477965
2004-06-08 06:48:33 51°14.769 2°45.4 16.701648 4.205778 32.636683 16.444255
2004-06-08 06:48:38 51°14.765 2°45.371 16.701648 4.205778 32.636683 16.444255
2004-06-08 06:48:42 51°14.762 2°45.348 16.702921 4.206094 32.637627 16.511674
2004-06-08 06:48:48 51°14.757 2°45.314 16.703515 4.207887 32.648967 16.477965
2004-06-08 06:48:53 51°14.754 2°45.285 16.701903 4.206937 32.639547 16.477965
2004-06-08 06:48:58 51°14.75 2°45.256 16.711492 4.209785 32.664814 16.579093
2004-06-08 06:49:02 51°14.747 2°45.233 16.71408 4.205567 32.630065 16.545383
2004-06-08 06:49:08 51°14.742 2°45.198 16.722352 4.211155 32.677291 16.579093
2004-06-08 06:49:13 51°14.739 2°45.169 16.722352 4.211155 32.677291 16.579093
2004-06-08 06:49:18 51°14.736 2°45.141 16.720103 4.204934 32.623985 16.579093
2004-06-08 06:49:22 51°14.733 2°45.117 16.717431 4.200189 32.58049 16.612802
2004-06-08 06:49:28 51°14.729 2°45.083 16.721079 4.209468 32.65728 16.612802
2004-06-08 06:49:32 51°14.726 2°45.06 16.721164 4.212842 32.68172 16.579093
2004-06-08 06:49:38 51°14.722 2°45.025 16.721164 4.212842 32.68172 16.579093
2004-06-08 06:49:42 51°14.719 2°45.002 16.719382 4.212842 32.68172 16.477965
2004-06-08 06:49:48 51°14.714 2°44.967 16.718576 4.208519 32.64367 16.511674
2004-06-08 06:49:52 51°14.712 2°44.944 16.724133 4.21706 32.716464 16.612802
2004-06-08 06:49:58 51°14.707 2°44.91 16.72303 4.21337 32.682691 16.579093
2004-06-08 06:50:02 51°14.705 2°44.886 16.729435 4.211683 32.669275 16.646512
2004-06-08 06:50:08 51°14.7 2°44.852 16.730368 4.214002 32.688771 16.646512
2004-06-08 06:50:12 51°14.697 2°44.829 16.730368 4.214002 32.688771 16.646512
2004-06-08 06:50:15 51°14.695 2°44.812 16.732913 4.207886 32.632804 16.71393
2004-06-08 06:50:22 51°14.691 2°44.771 16.741268 4.196181 32.535046 16.646512
2004-06-08 06:50:28 51°14.686 2°44.737 16.746314 4.195232 32.523252 16.680221
2004-06-08 06:50:32 51°14.684 2°44.714 16.753819 4.212948 32.674244 16.680221
2004-06-08 06:50:36 51°14.681 2°44.691 16.759034 4.21358 32.677927 16.680221
2004-06-08 06:50:46 51°14.674 2°44.633 16.763571 4.214635 32.682267 16.680221
2004-06-08 06:50:52 51°14.67 2°44.598 16.767047 4.199661 32.549058 16.71393
2004-06-08 06:50:56 51°14.667 2°44.576 16.772727 4.220856 32.730151 16.680221
2004-06-08 06:51:00 51°14.665 2°44.553 16.776076 4.217165 32.691002 16.680221
2004-06-08 06:51:07 51°14.66 2°44.513 16.776076 4.217165 32.691002 16.680221
2004-06-08 06:51:12 51°14.656 2°44.484 16.776415 4.221173 32.722697 16.646512
2004-06-08 06:51:17 51°14.653 2°44.455 16.780399 4.187323 32.42628 16.680221
2004-06-08 06:51:21 51°14.65 2°44.432 16.787646 4.226023 32.748499 16.71393
2004-06-08 06:51:26 51°14.647 2°44.403 16.790146 4.231507 32.801367 16.74764
2004-06-08 06:51:32 51°14.643 2°44.369 16.79396 4.230663 32.792262 16.74764
2004-06-08 06:51:36 51°14.64 2°44.346 16.79396 4.230663 32.792262 16.74764
2004-06-08 06:51:42 51°14.635 2°44.312 16.797519 4.233616 32.811817 16.74764
2004-06-08 06:51:46 51°14.632 2°44.289 16.798875 4.205882 32.573059 16.781349
2004-06-08 06:51:52 51°14.627 2°44.256 16.80057 4.199977 32.517833 16.74764
2004-06-08 06:51:56 51°14.625 2°44.232 16.803324 4.227605 32.751396 16.74764
2004-06-08 06:52:02 51°14.62 2°44.199 16.799935 4.228132 32.755359 16.74764
2004-06-08 06:52:07 51°14.616 2°44.17 16.799935 4.228132 32.755359 16.74764
2004-06-08 06:52:12 51°14.613 2°44.141 16.792095 4.242263 32.871641 16.71393
2004-06-08 06:52:16 51°14.61 2°44.118 16.784552 4.195653 32.469173 16.815059
2004-06-08 06:52:22 51°14.605 2°44.084 16.774295 4.228765 32.75364 16.74764
2004-06-08 06:52:26 51°14.603 2°44.061 16.772727 4.232561 32.785883 16.781349
2004-06-08 06:52:32 51°14.599 2°44.027 16.772727 4.232561 32.785883 16.781349
2004-06-08 06:52:36 51°14.596 2°44.004 16.769802 4.223386 32.708318 16.71393
2004-06-08 06:52:42 51°14.592 2°43.97 16.761408 4.244477 32.895023 16.680221
2004-06-08 06:52:46 51°14.589 2°43.947 16.758738 4.244055 32.893779 16.680221
2004-06-08 06:52:50 51°14.586 2°43.924 16.753268 4.202508 32.545072 16.71393
2004-06-08 06:52:57 51°14.581 2°43.884 16.748307 4.235936 32.834306 16.74764
2004-06-08 06:53:01 51°14.578 2°43.861 16.748307 4.235936 32.834306 16.74764
2004-06-08 06:53:05 51°14.575 2°43.838 16.744872 4.213158 32.639573 16.74764
2004-06-08 06:53:11 51°14.571 2°43.804 16.745169 4.221383 32.71793 16.71393
2004-06-08 06:53:17 51°14.567 2°43.77 16.737663 4.231296 32.80615 16.815059
2004-06-08 06:53:22 51°14.564 2°43.741 16.738851 4.23583 32.850836 16.815059
2004-06-08 06:53:26 51°14.562 2°43.718 16.730368 4.24258 32.911721 16.74764
2004-06-08 06:53:29 51°14.56 2°43.7 16.730368 4.24258 32.911721 16.74764
2004-06-08 06:53:37 51°14.554 2°43.654 16.729435 4.238045 32.874237 16.74764
2004-06-08 06:53:41 51°14.552 2°43.631 16.733507 4.236252 32.859909 16.71393
2004-06-08 06:53:45 51°14.549 2°43.608 16.734652 4.240365 32.900369 16.71393
2004-06-08 06:53:51 51°14.545 2°43.573 16.73567 4.222122 32.74291 16.646512
2004-06-08 06:53:57 51°14.541 2°43.539 16.735288 4.257238 33.053319 16.680221
2004-06-08 06:54:01 51°14.538 2°43.516 16.735288 4.257238 33.053319 16.680221
2004-06-08 06:54:07 51°14.534 2°43.481 16.734398 4.259453 33.071924 16.646512
2004-06-08 06:54:10 51°14.532 2°43.464 16.729054 4.257765 33.055468 16.646512
2004-06-08 06:54:17 51°14.528 2°43.423 16.73338 4.259242 33.067063 16.646512
2004-06-08 06:54:22 51°14.524 2°43.395 16.723455 4.261667 33.09053 16.579093
2004-06-08 06:54:25 51°14.523 2°43.377 16.713189 4.261667 33.087496 16.545383
2004-06-08 06:54:31 51°14.519 2°43.343 16.712383 4.259242 33.068275 16.612802
2004-06-08 06:54:36 51°14.516 2°43.314 16.712383 4.259242 33.068275 16.612802
2004-06-08 06:54:41 51°14.513 2°43.285 16.713189 4.261245 33.08687 16.511674
2004-06-08 06:54:46 51°14.509 2°43.257 16.70797 4.261773 33.095692 16.477965
2004-06-08 06:54:52 51°14.505 2°43.222 16.712213 4.262405 33.106039 16.477965
2004-06-08 06:54:55 51°14.503 2°43.205 16.703218 4.261562 33.10236 16.511674
2004-06-08 06:55:02 51°14.499 2°43.165 16.702624 4.258293 33.080663 16.511674
2004-06-08 06:55:07 51°14.495 2°43.136 16.702624 4.258293 33.080663 16.511674
2004-06-08 06:55:12 51°14.492 2°43.107 16.703133 4.261773 33.110871 16.477965
2004-06-08 06:55:16 51°14.489 2°43.085 16.707037 4.264198 33.13132 16.410546
2004-06-08 06:55:21 51°14.485 2°43.056 16.708649 4.262828 33.126104 16.545383
2004-06-08 06:55:26 51°14.482 2°43.027 16.704194 4.266308 33.152673 16.410546
2004-06-08 06:55:32 51°14.478 2°42.993 16.709498 4.26346 33.130382 16.444255
2004-06-08 06:55:37 51°14.474 2°42.964 16.709498 4.26346 33.130382 16.444255
2004-06-08 06:55:42 51°14.471 2°42.936 16.705297 4.265253 33.144124 16.477965
2004-06-08 06:55:45 51°14.469 2°42.918 16.709328 4.264093 33.13466 16.410546
2004-06-08 06:55:52 51°14.464 2°42.878 16.707928 4.264937 33.142593 16.376836
2004-06-08 06:55:56 51°14.462 2°42.855 16.704661 4.266202 33.151757 16.511674
2004-06-08 06:56:01 51°14.458 2°42.827 16.704661 4.266202 33.151757 16.511674
2004-06-08 06:56:06 51°14.455 2°42.798 16.702582 4.268838 33.173433 16.444255
2004-06-08 06:56:12 51°14.451 2°42.764 16.702794 4.268522 33.171295 16.511674
2004-06-08 06:56:16 51°14.449 2°42.741 16.702327 4.268733 33.173735 16.545383
2004-06-08 06:56:21 51°14.445 2°42.712 16.70063 4.271053 33.191447 16.511674
2004-06-08 06:56:26 51°14.442 2°42.684 16.706443 4.269577 33.180452 16.444255
2004-06-08 06:56:32 51°14.438 2°42.649 16.706443 4.269577 33.180452 16.444255
2004-06-08 06:56:35 51°14.436 2°42.632 16.712467 4.270209 33.188992 16.579093
2004-06-08 06:56:42 51°14.431 2°42.591 16.713358 4.27021 33.192647 16.477965
2004-06-08 06:56:46 51°14.429 2°42.568 16.710007 4.274217 33.225019 16.511674
2004-06-08 06:56:52 51°14.425 2°42.534 16.713952 4.272635 33.203966 16.545383
2004-06-08 06:56:56 51°14.422 2°42.51 16.711195 4.272635 33.208231 16.545383
2004-06-08 06:57:06 51°14.415 2°42.453 16.716158 4.273162 33.21403 16.511674
2004-06-08 06:57:12 51°14.412 2°42.419 16.707843 4.273479 33.21373 16.477965
2004-06-08 06:57:16 51°14.409 2°42.396 16.705382 4.27601 33.233884 16.511674
2004-06-08 06:57:20 51°14.407 2°42.372 16.701903 4.280544 33.269612 16.511674
2004-06-08 06:57:27 51°14.403 2°42.332 16.697108 4.276748 33.238467 16.477965
2004-06-08 06:57:32 51°14.4 2°42.303 16.697108 4.276748 33.238467 16.477965
2004-06-08 06:57:37 51°14.397 2°42.275 16.700333 4.27833 33.257088 16.579093
2004-06-08 06:57:41 51°14.394 2°42.252 16.691931 4.283497 33.296484 16.410546
2004-06-08 06:57:46 51°14.391 2°42.223 16.69244 4.280966 33.281825 16.579093
2004-06-08 06:57:52 51°14.386 2°42.188 16.692567 4.283814 33.310845 16.612802
2004-06-08 06:57:56 51°14.384 2°42.165 16.703727 4.282337 33.296792 16.612802
2004-06-08 06:58:02 51°14.38 2°42.131 16.698381 4.284446 33.316956 16.612802
2004-06-08 06:58:06 51°14.377 2°42.108 16.698381 4.284446 33.316956 16.612802
2004-06-08 06:58:12 51°14.373 2°42.073 16.700842 4.284552 33.319096 16.646512
2004-06-08 06:58:16 51°14.37 2°42.05 16.697405 4.284974 33.326432 16.646512
2004-06-08 06:58:22 51°14.367 2°42.016 16.695326 4.286766 33.338957 16.680221
2004-06-08 06:58:27 51°14.364 2°41.987 16.689299 4.286661 33.336204 16.545383
2004-06-08 06:58:30 51°14.362 2°41.97 16.688323 4.287505 33.344762 16.612802
2004-06-08 06:58:37 51°14.357 2°41.929 16.688323 4.287505 33.344762 16.612802
2004-06-08 06:58:41 51°14.355 2°41.906 16.684291 4.288876 33.347498 16.646512
2004-06-08 06:58:45 51°14.352 2°41.883 16.684419 4.286767 33.339569 16.612802
2004-06-08 06:58:51 51°14.347 2°41.849 16.688578 4.291407 33.383585 16.612802
2004-06-08 06:58:57 51°14.342 2°41.814 16.688281 4.293621 33.404683 16.579093
2004-06-08 06:59:02 51°14.338 2°41.786 16.688281 4.293621 33.404683 16.579093
2004-06-08 06:59:06 51°14.335 2°41.763 16.691973 4.291723 33.389401 16.646512
2004-06-08 06:59:12 51°14.33 2°41.728 16.690191 4.294571 33.417232 16.680221
2004-06-08 06:59:17 51°14.326 2°41.7 16.684758 4.292145 33.393069 16.646512
2004-06-08 06:59:22 51°14.323 2°41.671 16.681193 4.295098 33.420591 16.646512
2004-06-08 06:59:24 51°14.322 2°41.659 16.670029 4.294992 33.417833 16.612802
2004-06-08 06:59:32 51°14.316 2°41.613 16.670199 4.298051 33.443819 16.612802
2004-06-08 06:59:37 51°14.313 2°41.584 16.670199 4.298051 33.443819 16.612802
2004-06-08 06:59:42 51°14.309 2°41.555 16.656486 4.298262 33.445654 16.579093
2004-06-08 06:59:45 51°14.307 2°41.538 16.6457 4.301426 33.473175 16.545383
2004-06-08 06:59:52 51°14.302 2°41.498 16.63606 4.303535 33.493369 16.579093
2004-06-08 06:59:57 51°14.299 2°41.47 16.623784 4.303851 33.506582 16.376836
2004-06-08 07:00:01 51°14.296 2°41.447 16.618177 4.307753 33.546092 16.579093
2004-06-08 07:00:06 51°14.292 2°41.418 16.618177 4.307753 33.546092 16.579093
2004-06-08 07:00:12 51°14.288 2°41.384 16.618941 4.309019 33.563277 16.545383
2004-06-08 07:00:17 51°14.286 2°41.355 16.621448 4.308808 33.56761 16.612802
2004-06-08 07:00:21 51°14.283 2°41.332 16.624124 4.311023 33.598636 16.579093
2004-06-08 07:00:24 51°14.282 2°41.315 16.641071 4.315875 33.646481 16.511674
2004-06-08 07:00:32 51°14.279 2°41.268 16.641071 4.315875 33.646481 16.511674
2004-06-08 07:00:35 51°14.278 2°41.251 16.64621 4.312711 33.624471 16.444255
2004-06-08 07:00:41 51°14.277 2°41.216 16.655509 4.315242 33.647155 16.444255
2004-06-08 07:00:46 51°14.275 2°41.187 16.658949 4.311551 33.61374 16.410546
2004-06-08 07:00:52 51°14.274 2°41.152 16.656528 4.317562 33.665525 16.309418
2004-06-08 07:00:56 51°14.272 2°41.128 16.656528 4.317245 33.651623 16.241999
2004-06-08 07:01:01 51°14.271 2°41.099 16.656528 4.317245 33.651623 16.241999
2004-06-08 07:01:07 51°14.269 2°41.064 16.654108 4.311867 33.601044 16.241999
2004-06-08 07:01:12 51°14.267 2°41.035 16.64965 4.315452 33.626104 16.309418
2004-06-08 07:01:22 51°14.264 2°40.977 16.646889 4.317878 33.642908 16.343127
2004-06-08 07:01:28 51°14.262 2°40.942 16.647187 4.315558 33.62455 16.343127
2004-06-08 07:01:33 51°14.261 2°40.913 16.646719 4.315769 33.627624 16.309418
2004-06-08 07:01:38 51°14.259 2°40.884 16.640222 4.314081 33.614778 16.275708
2004-06-08 07:01:42 51°14.258 2°40.86 16.640222 4.314081 33.614778 16.275708
2004-06-08 07:01:48 51°14.256 2°40.825 16.641156 4.31271 33.607159 16.309418
2004-06-08 07:01:52 51°14.255 2°40.801 16.636697 4.310179 33.583256 16.275708
2004-06-08 07:01:56 51°14.253 2°40.778 16.629561 4.312078 33.599793 16.241999
2004-06-08 07:02:04 51°14.251 2°40.731 16.629264 4.312394 33.604403 16.275708
2004-06-08 07:02:09 51°14.249 2°40.701 16.626588 4.31155 33.599523 16.208289
2004-06-08 07:02:16 51°14.247 2°40.66 16.624506 4.313343 33.616381 16.140871
2004-06-08 07:02:21 51°14.246 2°40.631 16.623699 4.311972 33.604435 16.275708
2004-06-08 07:02:25 51°14.245 2°40.608 16.621745 4.313765 33.625622 16.241999
2004-06-08 07:02:30 51°14.244 2°40.579 16.621745 4.313765 33.625622 16.241999
2004-06-08 07:02:36 51°14.242 2°40.544 16.61567 4.3125 33.617684 16.208289
2004-06-08 07:02:41 51°14.241 2°40.514 16.60815 4.310707 33.601441 16.241999
2004-06-08 07:02:43 51°14.24 2°40.503 16.604793 4.307227 33.577289 16.17458
2004-06-08 07:02:49 51°14.238 2°40.467 16.590174 4.311129 33.614392 16.208289
2004-06-08 07:02:55 51°14.236 2°40.432 16.581886 4.312711 33.628183 16.140871
2004-06-08 07:03:00 51°14.235 2°40.402 16.581886 4.312711 33.628183 16.140871
2004-06-08 07:03:05 51°14.233 2°40.372 16.578146 4.310285 33.610748 16.208289
2004-06-08 07:03:10 51°14.231 2°40.343 16.563564 4.313449 33.642048 16.241999
2004-06-08 07:03:16 51°14.229 2°40.307 16.55591 4.310602 33.625264 16.444255
2004-06-08 07:03:20 51°14.228 2°40.283 16.561353 4.307333 33.603558 16.477965
2004-06-08 07:03:25 51°14.227 2°40.254 16.557398 4.309126 33.626007 16.579093
2004-06-08 07:03:30 51°14.226 2°40.224 16.557398 4.309126 33.626007 16.579093
2004-06-08 07:03:36 51°14.224 2°40.188 16.557568 4.311551 33.65399 16.545383
2004-06-08 07:03:41 51°14.223 2°40.159 16.556463 4.307966 33.629514 16.579093
2004-06-08 07:03:45 51°14.222 2°40.135 16.558887 4.306595 33.621886 16.545383
2004-06-08 07:03:49 51°14.221 2°40.112 16.56063 4.308071 33.636633 16.444255
2004-06-08 07:03:56 51°14.218 2°40.071 16.561863 4.301744 33.586355 16.376836
2004-06-08 07:04:00 51°14.217 2°40.047 16.561863 4.301744 33.586355 16.376836
2004-06-08 07:04:05 51°14.216 2°40.017 16.569303 4.305646 33.621657 16.275708
2004-06-08 07:04:10 51°14.214 2°39.987 16.574277 4.306384 33.625623 16.275708
2004-06-08 07:04:16 51°14.212 2°39.952 16.566327 4.305751 33.61762 16.17458
2004-06-08 07:04:21 51°14.211 2°39.922 16.563436 4.304802 33.609335 16.140871
2004-06-08 07:04:25 51°14.21 2°39.899 16.56097 4.306068 33.615425 16.17458
2004-06-08 07:04:29 51°14.208 2°39.875 16.56097 4.306068 33.615425 16.17458
2004-06-08 07:04:35 51°14.207 2°39.839 16.552636 4.311551 33.662052 16.107161
2004-06-08 07:04:40 51°14.206 2°39.81 16.547745 4.311552 33.663293 16.107161
2004-06-08 07:04:45 51°14.205 2°39.78 16.538176 4.308493 33.632877 16.039742
2004-06-08 07:04:50 51°14.204 2°39.751 16.527925 4.308177 33.635694 16.006033
2004-06-08 07:04:56 51°14.202 2°39.716 16.527925 4.308177 33.635694 16.006033
2004-06-08 07:05:01 51°14.201 2°39.686 16.526734 4.306806 33.624347 16.006033
2004-06-08 07:05:06 51°14.2 2°39.657 16.526649 4.30881 33.64928 15.871195
2004-06-08 07:05:10 51°14.199 2°39.633 16.524564 4.308177 33.648718 15.803777
2004-06-08 07:05:16 51°14.197 2°39.598 16.523841 4.307439 33.6522 15.837486
2004-06-08 07:05:21 51°14.196 2°39.569 16.531838 4.306912 33.650077 15.904905
2004-06-08 07:05:25 51°14.195 2°39.546 16.531838 4.306912 33.650077 15.904905
2004-06-08 07:05:30 51°14.193 2°39.517 16.536985 4.30765 33.65901 15.803777
2004-06-08 07:05:35 51°14.192 2°39.487 16.532221 4.306068 33.647673 15.837486
2004-06-08 07:05:40 51°14.191 2°39.458 16.525841 4.295206 33.552176 15.736358
2004-06-08 07:05:46 51°14.189 2°39.423 16.519587 4.312079 33.700196 15.60152
2004-06-08 07:05:49 51°14.189 2°39.406 16.50278 4.310919 33.685708 15.567811
2004-06-08 07:05:56 51°14.187 2°39.365 16.499077 4.315138 33.720701 15.466683
2004-06-08 07:06:00 51°14.186 2°39.342 16.499077 4.315138 33.720701 15.466683
2004-06-08 07:06:04 51°14.185 2°39.318 16.475965 4.305646 33.640884 15.466683
2004-06-08 07:06:09 51°14.183 2°39.29 16.464725 4.31788 33.751511 15.432973
2004-06-08 07:06:16 51°14.181 2°39.249 16.447564 4.311552 33.704295 15.399264
2004-06-08 07:06:21 51°14.179 2°39.22 16.437469 4.311236 33.708373 15.399264
2004-06-08 07:06:25 51°14.178 2°39.197 16.420471 4.312502 33.731892 15.298136
2004-06-08 07:06:30 51°14.177 2°39.168 16.420471 4.312502 33.731892 15.298136
2004-06-08 07:06:35 51°14.175 2°39.138 16.368003 4.314084 33.753833 15.264426
2004-06-08 07:06:40 51°14.174 2°39.11 16.30171 4.316615 33.789087 15.298136
2004-06-08 07:06:46 51°14.172 2°39.075 16.246118 4.311869 33.759407 15.197007
2004-06-08 07:06:49 51°14.171 2°39.057 16.223604 4.305226 33.710599 15.129589
2004-06-08 07:06:55 51°14.169 2°39.022 16.184239 4.308284 33.758608 15.095879
2004-06-08 07:07:01 51°14.167 2°38.987 16.184239 4.308284 33.758608 15.095879
2004-06-08 07:07:05 51°14.166 2°38.964 16.151269 4.299004 33.70976 15.06217
2004-06-08 07:07:10 51°14.164 2°38.934 16.115072 4.307864 33.837609 14.826204
2004-06-08 07:07:16 51°14.163 2°38.898 16.038551 4.298795 33.793096 14.758785
2004-06-08 07:07:21 51°14.162 2°38.869 15.995779 4.299322 33.824767 14.657657
2004-06-08 07:07:24 51°14.161 2°38.851 15.995779 4.299322 33.824767 14.657657
2004-06-08 07:07:30 51°14.159 2°38.816 15.961859 4.296686 33.833049 14.691366
2004-06-08 07:07:35 51°14.158 2°38.786 15.942512 4.286246 33.768192 14.522819
2004-06-08 07:07:41 51°14.156 2°38.751 15.893754 4.29036 33.844804 14.48911
2004-06-08 07:07:44 51°14.155 2°38.733 15.864595 4.280448 33.802826 14.387982
2004-06-08 07:07:50 51°14.153 2°38.697 15.868503 4.28551 33.889346 14.320563
2004-06-08 07:07:56 51°14.151 2°38.662 15.842556 4.28182 33.885903 14.286853
2004-06-08 07:08:00 51°14.15 2°38.638 15.842556 4.28182 33.885903 14.286853
2004-06-08 07:08:04 51°14.149 2°38.614 15.837356 4.283613 33.931661 14.219435
2004-06-08 07:08:11 51°14.146 2°38.573 15.819306 4.275704 33.888966 14.185725
2004-06-08 07:08:15 51°14.144 2°38.55 15.810752 4.277075 33.919589 14.118306
2004-06-08 07:08:21 51°14.14 2°38.514 15.802283 4.276654 33.932429 14.084597
2004-06-08 07:08:25 51°14.137 2°38.491 15.790459 4.270643 33.893134 14.017178
2004-06-08 07:08:30 51°14.134 2°38.462 15.790459 4.270643 33.893134 14.017178
2004-06-08 07:08:36 51°14.129 2°38.427 15.793512 4.265792 33.861564 14.050888
2004-06-08 07:08:40 51°14.126 2°38.403 15.789513 4.265476 33.87023 13.949759
2004-06-08 07:08:44 51°14.122 2°38.38 15.774891 4.264632 33.877412 14.017178
2004-06-08 07:08:51 51°14.117 2°38.34 15.777127 4.263367 33.861071 13.882341
2004-06-08 07:08:55 51°14.113 2°38.316 15.777127 4.263367 33.861071 13.882341
2004-06-08 07:09:01 51°14.108 2°38.282 15.76332 4.261785 33.860419 13.848631
2004-06-08 07:09:04 51°14.106 2°38.264 15.764395 4.26052 33.852369 13.814922
2004-06-08 07:09:09 51°14.102 2°38.235 15.761728 4.259782 33.849002 13.814922
2004-06-08 07:09:16 51°14.096 2°38.194 15.731565 4.26632 33.914757 13.747503
2004-06-08 07:09:21 51°14.092 2°38.165 15.732942 4.24776 33.758146 13.646375
2004-06-08 07:09:25 51°14.089 2°38.142 15.731823 4.261891 33.886258 13.680084
2004-06-08 07:09:28 51°14.087 2°38.125 15.731823 4.261891 33.886258 13.680084
2004-06-08 07:09:35 51°14.081 2°38.084 15.719514 4.26284 33.89853 13.680084
2004-06-08 07:09:40 51°14.077 2°38.055 15.714176 4.265477 33.931568 13.646375
2004-06-08 07:09:45 51°14.073 2°38.027 15.71805 4.253771 33.836429 13.578956
2004-06-08 07:09:50 51°14.068 2°37.998 15.708192 4.26263 33.922248 13.545247
2004-06-08 07:10:00 51°14.057 2°37.942 15.69437 4.256197 33.875898 13.477828
2004-06-08 07:10:08 51°14.047 2°37.897 15.69437 4.256197 33.875898 13.477828
2004-06-08 07:10:13 51°14.04 2°37.87 15.692906 4.256619 33.88413 13.477828
2004-06-08 07:10:18 51°14.034 2°37.842 15.688471 4.254299 33.867324 13.477828
2004-06-08 07:10:22 51°14.028 2°37.821 15.694241 4.259994 33.92249 13.444118
2004-06-08 07:10:28 51°14.02 2°37.788 15.686619 4.25683 33.902015 13.444118
2004-06-08 07:10:33 51°14.013 2°37.761 15.683949 4.250397 33.84923 13.477828
2004-06-08 07:10:37 51°14.007 2°37.739 15.686705 4.265689 33.987316 13.410409
2004-06-08 07:10:41 51°14.001 2°37.718 15.686705 4.265689 33.987316 13.410409
2004-06-08 07:10:48 51°13.992 2°37.679 15.686748 4.259889 33.934374 13.3767
2004-06-08 07:10:52 51°13.986 2°37.657 15.683432 4.253034 33.875261 13.34299
2004-06-08 07:10:58 51°13.978 2°37.624 15.673956 4.252612 33.873426 13.309281
2004-06-08 07:11:02 51°13.973 2°37.602 15.676713 4.258201 33.922555 13.275571
2004-06-08 07:11:08 51°13.964 2°37.569 15.676713 4.258201 33.922555 13.275571
2004-06-08 07:11:12 51°13.959 2°37.548 15.661377 4.254721 33.892847 13.309281
2004-06-08 07:11:16 51°13.953 2°37.526 15.662196 4.25103 33.863183 13.309281
2004-06-08 07:11:22 51°13.945 2°37.493 15.653407 4.255249 33.908439 13.275571
2004-06-08 07:11:28 51°13.937 2°37.46 15.654785 4.258307 33.936966 13.241862
2004-06-08 07:11:32 51°13.931 2°37.438 15.643151 4.253983 33.901655 13.241862
2004-06-08 07:11:38 51°13.923 2°37.405 15.64453 4.265584 34.011452 13.275571
2004-06-08 07:11:41 51°13.919 2°37.388 15.64453 4.265584 34.011452 13.275571
2004-06-08 07:11:48 51°13.91 2°37.35 15.637333 4.252718 33.903207 13.275571
2004-06-08 07:11:52 51°13.905 2°37.328 15.638885 4.262947 33.9976 13.241862
2004-06-08 07:11:58 51°13.896 2°37.295 15.623454 4.264002 34.01344 13.241862
2004-06-08 07:12:02 51°13.891 2°37.273 15.624187 4.257042 33.951377 13.241862
2004-06-08 07:12:08 51°13.883 2°37.24 15.615565 4.258518 33.962612 13.208153
2004-06-08 07:12:12 51°13.877 2°37.217 15.615565 4.258518 33.962612 13.208153
2004-06-08 07:12:18 51°13.869 2°37.184 15.606468 4.255566 33.94207 13.208153
2004-06-08 07:12:22 51°13.864 2°37.162 15.605218 4.253984 33.928609 13.208153
2004-06-08 07:12:28 51°13.856 2°37.129 15.605218 4.255355 33.949188 13.208153
2004-06-08 07:12:33 51°13.849 2°37.102 15.597154 4.257042 33.953948 13.140734
2004-06-08 07:12:38 51°13.842 2°37.074 15.596335 4.259784 34.003504 13.140734
2004-06-08 07:12:41 51°13.838 2°37.058 15.596335 4.259784 34.003504 13.140734
2004-06-08 07:12:48 51°13.829 2°37.019 15.586588 4.236057 33.793782 13.174443
2004-06-08 07:12:52 51°13.823 2°36.997 15.584173 4.249239 33.917126 13.174443
2004-06-08 07:12:57 51°13.816 2°36.969 15.588055 4.253773 33.957589 13.073315
2004-06-08 07:13:01 51°13.811 2°36.947 15.586977 4.255566 33.979384 13.107024
2004-06-08 07:13:08 51°13.802 2°36.909 15.582879 4.255883 33.987362 13.107024
2004-06-08 07:13:13 51°13.795 2°36.881 15.582879 4.255883 33.987362 13.107024
2004-06-08 07:13:18 51°13.788 2°36.853 15.583871 4.253246 33.96769 13.107024
2004-06-08 07:13:21 51°13.785 2°36.837 15.588443 4.253985 33.976858 13.107024
2004-06-08 07:13:28 51°13.776 2°36.798 15.576754 4.249134 33.936124 13.073315
2004-06-08 07:13:33 51°13.769 2°36.771 15.570844 4.254512 33.984144 13.039606
2004-06-08 07:13:37 51°13.763 2°36.749 15.570844 4.254512 33.984144 13.039606
2004-06-08 07:13:42 51°13.756 2°36.722 15.572268 4.255883 33.995096 13.039606
2004-06-08 07:13:48 51°13.747 2°36.69 15.565581 4.252192 33.955057 13.107024
2004-06-08 07:13:52 51°13.741 2°36.668 15.572915 4.253668 33.977255 13.039606
2004-06-08 07:13:57 51°13.733 2°36.642 15.575891 4.249661 33.947269 13.039606
2004-06-08 07:14:02 51°13.725 2°36.615 15.573217 4.247446 33.930713 13.039606
2004-06-08 07:14:08 51°13.715 2°36.584 15.577358 4.232999 33.79405 13.005896
2004-06-08 07:14:12 51°13.708 2°36.563 15.577358 4.232999 33.79405 13.005896
2004-06-08 07:14:17 51°13.699 2°36.537 15.586675 4.250083 33.958122 13.039606
2004-06-08 07:14:22 51°13.691 2°36.511 15.581326 4.260101 34.045681 12.972187
2004-06-08 07:14:28 51°13.681 2°36.479 15.584734 4.253141 33.98157 12.972187
2004-06-08 07:14:32 51°13.674 2°36.459 15.58909 4.245759 33.915004 13.005896
2004-06-08 07:14:34 51°13.671 2°36.448 15.58909 4.245759 33.915004 13.005896
2004-06-08 07:14:47 51°13.65 2°36.38 15.584087 4.255883 34.001545 12.972187
2004-06-08 07:14:52 51°13.641 2°36.354 15.591074 4.259047 34.029803 12.972187
2004-06-08 07:14:56 51°13.634 2°36.333 15.585036 4.252825 33.97101 12.938477
2004-06-08 07:15:02 51°13.624 2°36.301 15.585036 4.252825 33.97101 12.938477
2004-06-08 07:15:07 51°13.616 2°36.275 15.590125 4.256937 34.005158 12.938477
2004-06-08 07:15:12 51°13.607 2°36.249 15.59185 4.25757 34.010164 12.972187
2004-06-08 07:15:17 51°13.599 2°36.223 15.586459 4.253035 33.969028 12.938477
2004-06-08 07:15:21 51°13.592 2°36.202 15.589262 4.251559 33.955847 12.972187
2004-06-08 07:15:25 51°13.585 2°36.181 15.581068 4.252824 33.965857 12.904768
2004-06-08 07:15:30 51°13.577 2°36.154 15.581068 4.252824 33.965857 12.904768
2004-06-08 07:15:37 51°13.565 2°36.117 15.58689 4.253563 33.972447 12.871059
2004-06-08 07:15:42 51°13.557 2°36.091 15.584216 4.249555 33.936028 12.938477
2004-06-08 07:15:45 51°13.551 2°36.075 15.585941 4.262843 34.051444 12.972187
2004-06-08 07:15:52 51°13.54 2°36.038 15.585985 4.258941 34.023697 12.938477
2004-06-08 07:15:57 51°13.532 2°36.012 15.578178 4.263159 34.061374 12.938477
2004-06-08 07:16:02 51°13.523 2°35.985 15.578178 4.263159 34.061374 12.938477
2004-06-08 07:16:05 51°13.518 2°35.969 15.583785 4.233315 33.789824 12.904768
2004-06-08 07:16:12 51°13.507 2°35.932 15.571362 4.25757 34.012099 12.904768
2004-06-08 07:16:15 51°13.502 2°35.916 15.565063 4.259468 34.030988 12.904768
2004-06-08 07:16:21 51°13.492 2°35.885 15.557772 4.261788 34.05365 12.904768
2004-06-08 07:16:26 51°13.484 2°35.858 15.555226 4.255145 33.994307 12.938477
2004-06-08 07:16:32 51°13.473 2°35.827 15.546639 4.263792 34.072842 12.904768
2004-06-08 07:16:36 51°13.466 2°35.805 15.546639 4.263792 34.072842 12.904768
2004-06-08 07:16:41 51°13.458 2°35.779 15.546293 4.255777 34.005763 12.871059
2004-06-08 07:16:45 51°13.451 2°35.758 15.551817 4.251559 33.977756 12.837349
2004-06-08 07:16:51 51°13.441 2°35.727 15.547847 4.258309 34.039352 12.871059
2004-06-08 07:16:57 51°13.432 2°35.695 15.541417 4.255778 34.020609 12.871059
2004-06-08 07:17:01 51°13.425 2°35.673 15.532094 4.251032 33.981429 12.837349
2004-06-08 07:17:05 51°13.419 2°35.652 15.532094 4.251032 33.981429 12.837349
2004-06-08 07:17:10 51°13.41 2°35.626 15.526266 4.26084 34.064557 12.837349
2004-06-08 07:17:17 51°13.399 2°35.589 15.520611 4.258941 34.052762 12.76993
2004-06-08 07:17:22 51°13.391 2°35.563 15.513746 4.25504 34.018532 12.736221
2004-06-08 07:17:26 51°13.384 2°35.543 15.520568 4.257149 34.041261 12.736221
2004-06-08 07:17:32 51°13.374 2°35.511 15.52523 4.257782 34.057912 12.668802
2004-06-08 07:17:37 51°13.366 2°35.485 15.52523 4.257782 34.057912 12.668802
2004-06-08 07:17:42 51°13.358 2°35.459 15.52713 4.253142 34.021591 12.702512
2004-06-08 07:17:44 51°13.355 2°35.449 15.534338 4.259364 34.080474 12.668802
2004-06-08 07:17:49 51°13.347 2°35.423 15.535719 4.2504 34.004826 12.668802
2004-06-08 07:17:56 51°13.336 2°35.386 15.541503 4.253353 34.029296 12.635093
2004-06-08 07:18:00 51°13.329 2°35.366 15.545042 4.258309 34.072983 12.668802
2004-06-08 07:18:04 51°13.322 2°35.345 15.545042 4.258309 34.072983 12.668802
2004-06-08 07:18:12 51°13.308 2°35.304 15.551342 4.251665 34.010328 12.635093
2004-06-08 07:18:17 51°13.3 2°35.279 15.557168 4.250505 33.996079 12.668802
2004-06-08 07:18:21 51°13.293 2°35.259 15.561094 4.255462 34.037166 12.635093
2004-06-08 07:18:27 51°13.282 2°35.229 15.563769 4.259469 34.069765 12.601383
2004-06-08 07:18:32 51°13.273 2°35.204 15.569809 4.258203 34.051982 12.567674
2004-06-08 07:18:37 51°13.264 2°35.178 15.569809 4.258203 34.051982 12.567674
2004-06-08 07:18:42 51°13.255 2°35.153 15.576409 4.254407 34.014815 12.601383
2004-06-08 07:18:46 51°13.248 2°35.133 15.580981 4.258941 34.051469 12.601383
2004-06-08 07:18:52 51°13.237 2°35.103 15.58896 4.263581 34.09036 12.635093
2004-06-08 07:18:57 51°13.228 2°35.078 15.59323 4.249345 33.958616 12.635093
2004-06-08 07:19:02 51°13.219 2°35.053 15.59323 4.249345 33.958616 12.635093
2004-06-08 07:19:06 51°13.212 2°35.033 15.596119 4.254934 34.004679 12.567674
2004-06-08 07:19:11 51°13.203 2°35.008 15.601768 4.259996 34.042801 12.567674
2004-06-08 07:19:17 51°13.192 2°34.978 15.602243 4.255145 33.994952 12.635093
2004-06-08 07:19:22 51°13.183 2°34.952 15.601682 4.238799 33.846447 12.601383
2004-06-08 07:19:25 51°13.178 2°34.937 15.607072 4.26569 34.082044 12.601383
2004-06-08 07:19:32 51°13.166 2°34.902 15.607072 4.26569 34.082044 12.601383
2004-06-08 07:19:37 51°13.157 2°34.877 15.610694 4.263581 34.062558 12.601383
2004-06-08 07:19:41 51°13.15 2°34.857 15.614143 4.271174 34.12327 12.601383
2004-06-08 07:19:46 51°13.141 2°34.831 15.621558 4.243228 33.874415 12.567674
2004-06-08 07:19:52 51°13.131 2°34.801 15.625049 4.273916 34.146469 12.601383
2004-06-08 07:19:53 51°13.129 2°34.796 15.632592 4.267061 34.080718 12.567674
2004-06-08 07:20:02 51°13.113 2°34.75 15.633497 4.248395 33.911527 12.567674
2004-06-08 07:20:06 51°13.106 2°34.73 15.633497 4.248395 33.911527 12.567674
2004-06-08 07:20:12 51°13.096 2°34.7 15.636816 4.262526 34.034422 12.601383
2004-06-08 07:20:16 51°13.089 2°34.68 15.642591 4.26685 34.067211 12.567674
2004-06-08 07:20:22 51°13.078 2°34.65 15.648581 4.27033 34.095048 12.601383
2004-06-08 07:20:26 51°13.071 2°34.63 15.655475 4.279083 34.168021 12.567674
2004-06-08 07:20:32 51°13.06 2°34.6 15.657457 4.267271 34.061941 12.567674
2004-06-08 07:20:35 51°13.055 2°34.585 15.657457 4.267271 34.061941 12.567674
2004-06-08 07:20:42 51°13.042 2°34.549 15.662196 4.269802 34.080656 12.601383
2004-06-08 07:20:46 51°13.035 2°34.529 15.667882 4.278766 34.155491 12.635093
2004-06-08 07:20:52 51°13.024 2°34.5 15.671544 4.262737 34.005373 12.601383
2004-06-08 07:20:54 51°13.021 2°34.49 15.673612 4.2717 34.083395 12.601383
2004-06-08 07:21:01 51°13.008 2°34.454 15.675679 4.274548 34.106215 12.601383
2004-06-08 07:21:05 51°13.001 2°34.434 15.675679 4.274548 34.106215 12.601383
2004-06-08 07:21:12 51°12.988 2°34.399 15.677273 4.277184 34.125861 12.601383
2004-06-08 07:21:17 51°12.979 2°34.374 15.680245 4.266111 34.021945 12.601383
2004-06-08 07:21:21 51°12.972 2°34.354 15.682484 4.264002 34.000568 12.601383
2004-06-08 07:21:26 51°12.963 2°34.329 15.679211 4.267271 34.026494 12.601383
2004-06-08 07:21:30 51°12.956 2°34.309 15.681149 4.276868 34.110772 12.601383
2004-06-08 07:21:37 51°12.944 2°34.273 15.681149 4.276868 34.110772 12.601383
2004-06-08 07:21:41 51°12.937 2°34.253 15.680417 4.265478 34.005365 12.601383
2004-06-08 07:21:45 51°12.93 2°34.233 15.678909 4.271384 34.059296 12.601383
2004-06-08 07:21:52 51°12.918 2°34.198 15.673655 4.271384 34.057363 12.601383
2004-06-08 07:21:57 51°12.909 2°34.173 15.672276 4.270435 34.052767 12.567674
2004-06-08 07:22:01 51°12.902 2°34.152 15.666805 4.268642 34.032921 12.567674
2004-06-08 07:22:07 51°12.891 2°34.122 15.666805 4.268642 34.032921 12.567674
2004-06-08 07:22:17 51°12.874 2°34.072 15.655862 4.270329 34.050538 12.533965
2004-06-08 07:22:20 51°12.869 2°34.056 15.644832 4.270962 34.059401 12.601383
2004-06-08 07:22:25 51°12.86 2°34.031 15.635351 4.275497 34.099837 12.567674
2004-06-08 07:22:33 51°12.846 2°33.991 15.640738 4.264424 34.003041 12.567674
2004-06-08 07:22:38 51°12.837 2°33.965 15.635911 4.26474 34.014228 12.533965
2004-06-08 07:22:41 51°12.832 2°33.95 15.635911 4.26474 34.014228 12.533965
2004-06-08 07:22:47 51°12.821 2°33.919 15.624403 4.239747 33.79596 12.533965
2004-06-08 07:22:52 51°12.813 2°33.894 15.624704 4.27729 34.136494 12.533965
2004-06-08 07:22:58 51°12.802 2°33.864 15.618928 4.26938 34.071729 12.533965
2004-06-08 07:23:03 51°12.793 2°33.839 15.620954 4.256831 33.961069 12.533965
2004-06-08 07:23:08 51°12.784 2°33.813 15.616729 4.2717 34.089203 12.533965
2004-06-08 07:23:12 51°12.777 2°33.793 15.616729 4.2717 34.089203 12.533965
2004-06-08 07:23:17 51°12.768 2°33.768 15.624532 4.23574 33.782001 12.533965
2004-06-08 07:23:22 51°12.759 2°33.743 15.619661 4.264002 34.036636 12.533965
2004-06-08 07:23:28 51°12.748 2°33.713 15.612806 4.261577 34.018213 12.533965
2004-06-08 07:23:33 51°12.74 2°33.687 15.616902 4.269064 34.085043 12.500255
2004-06-08 07:23:37 51°12.733 2°33.667 15.616514 4.2543 33.954572 12.500255
2004-06-08 07:23:41 51°12.726 2°33.647 15.616514 4.2543 33.954572 12.500255
2004-06-08 07:23:48 51°12.713 2°33.612 15.623066 4.235213 33.78242 12.500255
2004-06-08 07:23:52 51°12.706 2°33.591 15.625308 4.262315 34.024157 12.601383
2004-06-08 07:23:58 51°12.696 2°33.561 15.622032 4.26917 34.090506 12.466546
2004-06-08 07:24:00 51°12.692 2°33.551 15.622721 4.268326 34.081036 12.466546
2004-06-08 07:24:08 51°12.678 2°33.511 15.619402 4.267904 34.077916 12.466546
2004-06-08 07:24:12 51°12.671 2°33.491 15.619402 4.267904 34.077916 12.466546
2004-06-08 07:24:17 51°12.662 2°33.466 15.616298 4.256304 33.969875 12.466546
2004-06-08 07:24:21 51°12.656 2°33.446 15.621687 4.262421 34.025743 12.466546
2004-06-08 07:24:28 51°12.643 2°33.41 15.621126 4.253668 33.948284 12.432836
2004-06-08 07:24:32 51°12.636 2°33.39 15.631601 4.264846 34.045455 12.466546
2004-06-08 07:24:38 51°12.626 2°33.359 15.630782 4.269908 34.093221 12.500255
2004-06-08 07:24:42 51°12.619 2°33.339 15.630782 4.269908 34.093221 12.500255
2004-06-08 07:24:48 51°12.609 2°33.309 15.625437 4.263159 34.038135 12.466546
2004-06-08 07:24:53 51°12.6 2°33.284 15.627118 4.263686 34.039616 12.466546
2004-06-08 07:24:57 51°12.594 2°33.264 15.626213 4.26685 34.063338 12.466546
2004-06-08 07:25:02 51°12.585 2°33.239 15.629575 4.26221 34.021926 12.466546
2004-06-08 07:25:08 51°12.575 2°33.208 15.637721 4.260733 34.004242 12.466546
2004-06-08 07:25:13 51°12.566 2°33.183 15.637721 4.260733 34.004242 12.466546
2004-06-08 07:25:18 51°12.558 2°33.158 15.646641 4.263897 34.034405 12.432836
2004-06-08 07:25:22 51°12.551 2°33.137 15.651554 4.266111 34.054169 12.466546
2004-06-08 07:25:28 51°12.541 2°33.107 15.662411 4.260733 34.00553 12.432836
2004-06-08 07:25:31 51°12.536 2°33.092 15.672405 4.270752 34.092355 12.432836
2004-06-08 07:25:37 51°12.526 2°33.061 15.686619 4.259678 33.988395 12.432836
2004-06-08 07:25:41 51°12.519 2°33.041 15.686619 4.259678 33.988395 12.432836
2004-06-08 07:25:48 51°12.509 2°33.004 15.700743 4.267271 34.051621 12.432836
2004-06-08 07:25:56 51°12.497 2°32.962 15.705996 4.266849 34.035612 12.466546
2004-06-08 07:26:04 51°12.486 2°32.919 15.70169 4.265267 34.009275 12.432836
2004-06-08 07:26:09 51°12.478 2°32.893 15.689117 4.272016 34.059782 12.432836
2004-06-08 07:26:14 51°12.471 2°32.866 15.675205 4.270118 34.029346 12.432836
2004-06-08 07:26:18 51°12.466 2°32.845 15.675205 4.270118 34.029346 12.432836
2004-06-08 07:26:24 51°12.457 2°32.813 15.662885 4.267692 34.007736 12.533965
2004-06-08 07:26:29 51°12.45 2°32.787 15.651985 4.267271 34.003978 12.399127
2004-06-08 07:26:33 51°12.444 2°32.765 15.6469 4.26822 34.015006 12.466546
2004-06-08 07:26:37 51°12.439 2°32.744 15.643625 4.286464 34.186023 12.432836
2004-06-08 07:26:44 51°12.429 2°32.707 15.637936 4.274653 34.085864 12.432836
2004-06-08 07:26:48 51°12.423 2°32.686 15.637936 4.274653 34.085864 12.432836
2004-06-08 07:26:54 51°12.414 2°32.654 15.635782 4.269275 34.049511 12.432836
2004-06-08 07:26:58 51°12.408 2°32.633 15.638755 4.275919 34.116509 12.432836
2004-06-08 07:27:04 51°12.399 2°32.601 15.633239 4.270962 34.07939 12.399127
2004-06-08 07:27:08 51°12.393 2°32.58 15.632678 4.26706 34.049739 12.432836
2004-06-08 07:27:12 51°12.388 2°32.559 15.637764 4.259784 33.988692 12.432836
2004-06-08 07:27:19 51°12.377 2°32.522 15.637764 4.259784 33.988692 12.432836
2004-06-08 07:27:24 51°12.37 2°32.496 15.633583 4.276446 34.136722 12.399127
2004-06-08 07:27:29 51°12.363 2°32.469 15.638066 4.2601 33.994733 12.365418
2004-06-08 07:27:34 51°12.356 2°32.443 15.643927 4.26706 34.055543 12.365418
2004-06-08 07:27:38 51°12.35 2°32.422 15.654441 4.263159 34.022017 12.365418
2004-06-08 07:27:44 51°12.341 2°32.39 15.660257 4.259995 33.994436 12.365418
2004-06-08 07:27:49 51°12.334 2°32.363 15.660257 4.259995 33.994436 12.365418
2004-06-08 07:27:54 51°12.327 2°32.337 15.667236 4.26569 34.042665 12.365418
2004-06-08 07:27:57 51°12.322 2°32.321 15.665685 4.268115 34.063018 12.331708
2004-06-08 07:28:04 51°12.312 2°32.283 15.665384 4.266322 34.041864 12.365418
2004-06-08 07:28:09 51°12.305 2°32.256 15.659525 4.270329 34.07181 12.331708
2004-06-08 07:28:12 51°12.301 2°32.24 15.659525 4.270329 34.07181 12.331708
2004-06-08 07:28:15 51°12.296 2°32.225 15.652286 4.267904 34.043084 12.365418
2004-06-08 07:28:24 51°12.284 2°32.176 15.65806 4.268853 34.048971 12.365418
2004-06-08 07:28:29 51°12.276 2°32.15 15.656207 4.263158 33.996906 12.399127
2004-06-08 07:28:34 51°12.269 2°32.123 15.653622 4.264529 34.011704 12.399127
2004-06-08 07:28:37 51°12.265 2°32.107 15.639488 4.253035 33.913727 12.399127
2004-06-08 07:28:44 51°12.254 2°32.07 15.639488 4.253035 33.913727 12.399127
2004-06-08 07:28:48 51°12.248 2°32.048 15.630006 4.27054 34.069177 12.365418
2004-06-08 07:28:52 51°12.242 2°32.027 15.626084 4.273599 34.097748 12.365418
2004-06-08 07:28:57 51°12.235 2°32.001 15.610909 4.268326 34.045557 12.331708
2004-06-08 07:29:04 51°12.224 2°31.963 15.595171 4.276024 34.124555 12.365418
2004-06-08 07:29:08 51°12.218 2°31.942 15.588141 4.263158 34.015575 12.331708
2004-06-08 07:29:14 51°12.21 2°31.91 15.579213 4.272966 34.112768 12.331708
2004-06-08 07:29:18 51°12.204 2°31.888 15.579213 4.272966 34.112768 12.331708
2004-06-08 07:29:23 51°12.196 2°31.861 15.568558 4.271912 34.108524 12.331708
2004-06-08 07:29:28 51°12.189 2°31.834 15.553241 4.268854 34.090266 12.297999
2004-06-08 07:29:34 51°12.18 2°31.802 15.546725 4.262632 34.047624 12.365418
2004-06-08 07:29:38 51°12.174 2°31.781 15.540467 4.260417 34.035593 12.331708
2004-06-08 07:29:44 51°12.165 2°31.748 15.532612 4.274865 34.171795 12.331708
2004-06-08 07:29:49 51°12.157 2°31.721 15.532612 4.274865 34.171795 12.331708
2004-06-08 07:29:53 51°12.151 2°31.7 15.530756 4.258519 34.031548 12.331708
2004-06-08 07:29:59 51°12.142 2°31.668 15.524108 4.257465 34.032458 12.297999
2004-06-08 07:30:04 51°12.134 2°31.641 15.524842 4.260207 34.067955 12.331708
2004-06-08 07:30:09 51°12.127 2°31.614 15.53313 4.260418 34.073076 12.297999
2004-06-08 07:30:13 51°12.121 2°31.592 15.526482 4.258414 34.062276 12.297999
2004-06-08 07:30:19 51°12.112 2°31.56 15.526482 4.258414 34.062276 12.297999
2004-06-08 07:30:24 51°12.104 2°31.533 15.52169 4.263055 34.106365 12.331708
2004-06-08 07:30:29 51°12.097 2°31.506 15.527475 4.265164 34.130419 12.297999
2004-06-08 07:30:33 51°12.091 2°31.485 15.522726 4.234476 33.853454 12.331708
2004-06-08 07:30:37 51°12.084 2°31.463 15.523547 4.251454 34.008442 12.297999
2004-06-08 07:30:44 51°12.074 2°31.426 15.520697 4.266429 34.14239 12.297999
2004-06-08 07:30:48 51°12.068 2°31.404 15.520697 4.266429 34.14239 12.297999
2004-06-08 07:30:52 51°12.062 2°31.383 15.524496 4.255989 34.048995 12.297999
2004-06-08 07:30:58 51°12.053 2°31.35 15.524842 4.253774 34.029835 12.297999
2004-06-08 07:31:04 51°12.044 2°31.318 15.528166 4.252825 34.02264 12.297999
2004-06-08 07:31:08 51°12.038 2°31.296 15.526051 4.259258 34.080826 12.264289
2004-06-08 07:31:13 51°12.03 2°31.269 15.523633 4.269804 34.176483 12.264289
2004-06-08 07:31:18 51°12.022 2°31.242 15.523633 4.269804 34.176483 12.264289
2004-06-08 07:31:24 51°12.013 2°31.21 15.523849 4.256305 34.053765 12.297999
2004-06-08 07:31:28 51°12.007 2°31.189 15.521993 4.261367 34.100342 12.297999
2004-06-08 07:31:34 51°11.998 2°31.156 15.527691 4.258625 34.075813 12.264289